Time,TemperatureF,DewpointF,PressureIn,WindDirection,WindDirectionDegrees,WindSpeedMPH,WindSpeedGustMPH,Humidity,HourlyPrecipIn,Conditions,Clouds,dailyrainin,SoftwareType,DateUTC
2013-12-02 00:02:00,37.8,30.0,29.49,North,0,0.0,0.0,73,0.00,,,0.00,WUHU216HW,2013-12-02 07:02:00,
2013-12-02 00:03:00,37.8,30.2,29.48,North,0,0.0,0.0,74,0.00,,,0.00,WUHU216HW,2013-12-02 07:03:00,
2013-12-02 00:04:00,37.8,30.0,29.48,North,0,0.0,0.0,73,0.00,,,0.00,WUHU216HW,2013-12-02 07:04:00,
2013-12-02 00:07:00,38.0,30.1,29.48,North,0,0.0,0.0,73,0.00,,,0.00,WUHU216HW,2013-12-02 07:07:00,
2013-12-02 00:08:00,38.0,30.1,29.48,North,0,0.0,0.0,73,0.00,,,0.00,WUHU216HW,2013-12-02 07:08:00,
2013-12-02 00:09:00,38.0,30.1,29.48,North,0,0.0,0.0,73,0.00,,,0.00,WUHU216HW,2013-12-02 07:09:00,
2013-12-02 00:12:00,38.0,30.1,29.48,North,0,0.0,0.0,73,0.00,,,0.00,WUHU216HW,2013-12-02 07:12:00,
2013-12-02 00:13:00,38.0,30.1,29.48,North,0,0.0,0.0,73,0.00,,,0.00,WUHU216HW,2013-12-02 07:13:00,
2013-12-02 00:14:00,38.0,30.1,29.48,North,0,0.0,0.0,73,0.00,,,0.00,WUHU216HW,2013-12-02 07:14:00,
2013-12-02 00:18:00,38.2,30.2,29.48,North,0,0.0,0.0,73,0.00,,,0.00,WUHU216HW,2013-12-02 07:18:00,
2013-12-02 00:20:00,38.2,30.2,29.48,North,0,0.0,0.0,73,0.00,,,0.00,WUHU216HW,2013-12-02 07:20:00,
2013-12-02 00:23:00,38.3,30.4,29.47,North,0,0.0,0.0,73,0.00,,,0.00,WUHU216HW,2013-12-02 07:23:00,
2013-12-02 00:24:00,38.3,30.4,29.47,North,0,0.0,0.0,73,0.00,,,0.00,WUHU216HW,2013-12-02 07:24:00,
2013-12-02 00:25:00,38.3,30.4,29.47,North,0,0.0,0.0,73,0.00,,,0.00,WUHU216HW,2013-12-02 07:25:00,
2013-12-02 00:28:00,38.5,30.6,29.48,North,0,0.0,0.0,73,0.00,,,0.00,WUHU216HW,2013-12-02 07:28:00,
2013-12-02 00:29:00,38.5,31.0,29.48,North,0,0.0,0.0,74,0.00,,,0.00,WUHU216HW,2013-12-02 07:29:00,
2013-12-02 00:30:00,38.5,31.0,29.48,North,0,0.0,0.0,74,0.00,,,0.00,WUHU216HW,2013-12-02 07:30:00,
2013-12-02 00:33:00,38.5,31.0,29.48,North,0,0.0,0.0,74,0.00,,,0.00,WUHU216HW,2013-12-02 07:33:00,
2013-12-02 00:34:00,38.5,31.0,29.47,North,0,0.0,0.0,74,0.00,,,0.00,WUHU216HW,2013-12-02 07:34:00,
2013-12-02 00:35:00,38.5,31.0,29.47,North,0,0.0,0.0,74,0.00,,,0.00,WUHU216HW,2013-12-02 07:35:00,
2013-12-02 00:36:00,38.5,31.0,29.47,North,0,0.0,0.0,74,0.00,,,0.00,WUHU216HW,2013-12-02 07:36:00,
2013-12-02 00:38:00,38.5,31.0,29.47,North,0,0.0,0.0,74,0.00,,,0.00,WUHU216HW,2013-12-02 07:38:00,
2013-12-02 00:39:00,38.5,31.0,29.47,North,0,0.0,0.0,74,0.00,,,0.00,WUHU216HW,2013-12-02 07:39:00,
2013-12-02 00:40:00,38.5,31.2,29.47,North,0,0.0,0.0,75,0.00,,,0.00,WUHU216HW,2013-12-02 07:40:00,
2013-12-02 00:41:00,38.5,31.6,29.47,North,0,0.0,0.0,76,0.00,,,0.00,WUHU216HW,2013-12-02 07:41:00,
2013-12-02 00:43:00,38.5,31.6,29.47,North,0,0.0,0.0,76,0.00,,,0.00,WUHU216HW,2013-12-02 07:43:00,
2013-12-02 00:44:00,38.5,31.6,29.46,North,0,0.0,0.0,76,0.00,,,0.00,WUHU216HW,2013-12-02 07:44:00,
2013-12-02 00:45:00,38.5,31.6,29.47,North,0,0.0,0.0,76,0.00,,,0.00,WUHU216HW,2013-12-02 07:45:00,
2013-12-02 00:47:00,38.5,31.6,29.47,North,0,0.0,0.0,76,0.00,,,0.00,WUHU216HW,2013-12-02 07:47:00,
2013-12-02 00:49:00,38.5,31.2,29.46,NNW,338,2.2,2.2,75,0.00,,,0.00,WUHU216HW,2013-12-02 07:49:00,
2013-12-02 00:50:00,38.3,31.1,29.46,NNW,338,1.6,2.2,75,0.00,,,0.00,WUHU216HW,2013-12-02 07:50:00,
2013-12-02 00:52:00,38.2,31.0,29.46,NNW,338,0.4,2.2,75,0.00,,,0.00,WUHU216HW,2013-12-02 07:52:00,
2013-12-02 00:54:00,38.0,30.4,29.46,ESE,113,0.7,2.2,74,0.00,,,0.00,WUHU216HW,2013-12-02 07:54:00,
2013-12-02 00:55:00,37.8,30.2,29.46,SW,225,0.2,2.2,74,0.00,,,0.00,WUHU216HW,2013-12-02 07:55:00,
2013-12-02 00:57:00,37.6,30.4,29.46,West,270,2.7,3.6,75,0.00,,,0.00,WUHU216HW,2013-12-02 07:57:00,
2013-12-02 00:59:00,37.4,30.9,29.45,NNE,23,0.9,3.6,77,0.00,,,0.00,WUHU216HW,2013-12-02 07:59:00,
2013-12-02 01:00:00,37.4,30.6,29.46,North,0,0.2,3.6,76,0.00,,,0.00,WUHU216HW,2013-12-02 08:00:00,
2013-12-02 01:01:00,37.3,30.4,29.46,West,270,0.4,3.6,76,0.00,,,0.00,WUHU216HW,2013-12-02 08:01:00,
2013-12-02 01:02:00,37.3,30.1,29.46,SW,225,5.8,6.0,75,0.00,,,0.00,WUHU216HW,2013-12-02 08:02:00,
2013-12-02 01:04:00,37.1,29.5,29.46,SW,225,1.3,6.0,74,0.00,,,0.00,WUHU216HW,2013-12-02 08:04:00,
2013-12-02 01:05:00,36.9,29.3,29.46,SW,225,1.6,6.0,74,0.00,,,0.00,WUHU216HW,2013-12-02 08:05:00,
2013-12-02 01:06:00,36.9,29.3,29.46,WSW,248,2.2,6.0,74,0.00,,,0.00,WUHU216HW,2013-12-02 08:06:00,
2013-12-02 01:08:00,36.7,29.2,29.46,SW,225,2.9,6.0,74,0.00,,,0.00,WUHU216HW,2013-12-02 08:08:00,
2013-12-02 01:09:00,36.5,29.0,29.46,SSW,203,2.5,6.0,74,0.00,,,0.00,WUHU216HW,2013-12-02 08:09:00,
2013-12-02 01:10:00,36.4,28.8,29.45,ENE,68,0.4,6.0,74,0.00,,,0.00,WUHU216HW,2013-12-02 08:10:00,
2013-12-02 01:11:00,36.4,28.8,29.45,ENE,68,0.4,6.0,74,0.00,,,0.00,WUHU216HW,2013-12-02 08:11:00,
2013-12-02 01:12:00,36.4,29.2,29.45,West,270,4.0,6.0,75,0.00,,,0.00,WUHU216HW,2013-12-02 08:12:00,
2013-12-02 01:13:00,36.2,29.6,29.46,NNE,23,0.0,4.9,77,0.00,,,0.00,WUHU216HW,2013-12-02 08:13:00,
2013-12-02 01:14:00,36.4,30.2,29.46,WNW,293,5.6,5.6,78,0.00,,,0.00,WUHU216HW,2013-12-02 08:14:00,
2013-12-02 01:15:00,36.4,30.2,29.46,WNW,293,5.6,5.6,78,0.00,,,0.00,WUHU216HW,2013-12-02 08:15:00,
2013-12-02 01:16:00,36.4,29.8,29.46,WSW,248,1.3,5.6,77,0.00,,,0.00,WUHU216HW,2013-12-02 08:16:00,
2013-12-02 01:18:00,36.4,29.8,29.45,ENE,68,1.6,5.6,77,0.00,,,0.00,WUHU216HW,2013-12-02 08:18:00,
2013-12-02 01:19:00,36.4,29.5,29.45,North,0,0.9,5.6,76,0.00,,,0.00,WUHU216HW,2013-12-02 08:19:00,
2013-12-02 01:20:00,36.5,30.0,29.45,NNE,23,1.1,5.6,77,0.00,,,0.00,WUHU216HW,2013-12-02 08:20:00,
2013-12-02 01:21:00,36.5,30.3,29.45,NNE,23,2.0,5.6,78,0.00,,,0.00,WUHU216HW,2013-12-02 08:21:00,
2013-12-02 01:23:00,36.7,30.2,29.45,NE,45,2.5,5.6,77,0.00,,,0.00,WUHU216HW,2013-12-02 08:23:00,
2013-12-02 01:24:00,36.7,30.5,29.45,NE,45,4.0,5.6,78,0.00,,,0.00,WUHU216HW,2013-12-02 08:24:00,
2013-12-02 01:25:00,36.9,30.7,29.45,North,0,4.0,4.7,78,0.00,,,0.00,WUHU216HW,2013-12-02 08:25:00,
2013-12-02 01:26:00,36.9,30.3,29.45,NNW,338,2.9,4.7,77,0.00,,,0.00,WUHU216HW,2013-12-02 08:26:00,
2013-12-02 01:28:00,36.9,30.1,29.45,NE,45,1.1,4.7,76,0.00,,,0.00,WUHU216HW,2013-12-02 08:28:00,
2013-12-02 01:29:00,36.9,30.3,29.45,NE,45,1.1,4.7,77,0.00,,,0.00,WUHU216HW,2013-12-02 08:29:00,
2013-12-02 01:30:00,36.7,30.2,29.44,NNE,23,5.1,6.3,77,0.00,,,0.00,WUHU216HW,2013-12-02 08:30:00,
2013-12-02 01:31:00,36.5,30.0,29.45,NNW,338,2.7,6.3,77,0.00,,,0.00,WUHU216HW,2013-12-02 08:31:00,
2013-12-02 01:33:00,36.2,30.0,29.45,North,0,1.6,6.7,78,0.00,,,0.00,WUHU216HW,2013-12-02 08:33:00,
2013-12-02 01:34:00,36.2,30.0,29.45,North,0,2.5,6.7,78,0.00,,,0.00,WUHU216HW,2013-12-02 08:34:00,
2013-12-02 01:35:00,35.8,29.6,29.44,ENE,68,7.6,7.6,78,0.00,,,0.00,WUHU216HW,2013-12-02 08:35:00,
2013-12-02 01:36:00,35.8,29.9,29.44,North,0,3.6,7.6,79,0.00,,,0.00,WUHU216HW,2013-12-02 08:36:00,
2013-12-02 01:38:00,35.8,30.2,29.45,NNW,338,4.7,9.6,80,0.00,,,0.00,WUHU216HW,2013-12-02 08:38:00,
2013-12-02 01:39:00,35.8,30.2,29.45,NNW,338,4.3,9.6,80,0.00,,,0.00,WUHU216HW,2013-12-02 08:39:00,
2013-12-02 01:40:00,35.8,30.2,29.45,NNW,338,2.5,9.6,80,0.00,,,0.00,WUHU216HW,2013-12-02 08:40:00,
2013-12-02 01:41:00,35.8,29.9,29.45,WSW,248,3.4,9.6,79,0.00,,,0.00,WUHU216HW,2013-12-02 08:41:00,
2013-12-02 01:42:00,35.8,29.9,29.45,WNW,293,3.8,9.6,79,0.00,,,0.00,WUHU216HW,2013-12-02 08:42:00,
2013-12-02 01:44:00,35.8,29.9,29.45,East,90,2.2,9.6,79,0.00,,,0.00,WUHU216HW,2013-12-02 08:44:00,
2013-12-02 01:45:00,36.0,30.4,29.44,NNE,23,5.6,9.6,80,0.00,,,0.00,WUHU216HW,2013-12-02 08:45:00,
2013-12-02 01:46:00,36.2,30.6,29.45,NW,315,2.5,9.6,80,0.00,,,0.00,WUHU216HW,2013-12-02 08:46:00,
2013-12-02 01:47:00,36.2,30.6,29.45,NW,315,2.5,9.6,80,0.00,,,0.00,WUHU216HW,2013-12-02 08:47:00,
2013-12-02 01:50:00,36.5,30.6,29.44,NNE,23,3.4,5.6,79,0.00,,,0.00,WUHU216HW,2013-12-02 08:50:00,
2013-12-02 01:52:00,36.9,31.0,29.44,North,0,3.1,5.6,79,0.00,,,0.00,WUHU216HW,2013-12-02 08:52:00,
2013-12-02 01:55:00,37.1,30.9,29.44,WNW,293,1.1,5.6,78,0.00,,,0.00,WUHU216HW,2013-12-02 08:55:00,
2013-12-02 01:57:00,37.1,30.9,29.44,NNW,338,2.5,5.1,78,0.00,,,0.00,WUHU216HW,2013-12-02 08:57:00,
2013-12-02 01:58:00,37.1,30.9,29.44,North,0,0.4,5.1,78,0.00,,,0.00,WUHU216HW,2013-12-02 08:58:00,
2013-12-02 02:00:00,36.9,31.0,29.43,NE,45,0.4,4.9,79,0.00,,,0.00,WUHU216HW,2013-12-02 09:00:00,
2013-12-02 02:01:00,36.9,31.0,29.43,NNE,23,3.8,5.6,79,0.00,,,0.00,WUHU216HW,2013-12-02 09:01:00,
2013-12-02 02:02:00,37.1,31.5,29.44,NNW,338,5.4,5.6,80,0.00,,,0.00,WUHU216HW,2013-12-02 09:02:00,
2013-12-02 02:03:00,37.3,31.3,29.44,NNW,338,5.4,5.6,79,0.00,,,0.00,WUHU216HW,2013-12-02 09:03:00,
2013-12-02 02:05:00,37.8,31.2,29.43,SW,225,13.4,14.1,77,0.00,,,0.00,WUHU216HW,2013-12-02 09:05:00,
2013-12-02 02:06:00,38.5,31.2,29.43,WSW,248,13.4,14.1,75,0.00,,,0.00,WUHU216HW,2013-12-02 09:06:00,
2013-12-02 02:07:00,39.2,31.6,29.43,WSW,248,10.5,14.1,74,0.00,,,0.00,WUHU216HW,2013-12-02 09:07:00,
2013-12-02 02:08:00,40.3,31.3,29.43,WSW,248,12.3,14.1,70,0.00,,,0.00,WUHU216HW,2013-12-02 09:08:00,
2013-12-02 02:11:00,41.9,32.6,29.43,North,0,5.1,14.1,69,0.00,,,0.00,WUHU216HW,2013-12-02 09:11:00,
2013-12-02 02:12:00,41.8,32.8,29.43,North,0,4.9,14.1,70,0.00,,,0.00,WUHU216HW,2013-12-02 09:12:00,
2013-12-02 02:13:00,41.4,32.4,29.43,WNW,293,2.7,14.1,70,0.00,,,0.00,WUHU216HW,2013-12-02 09:13:00,
2013-12-02 02:16:00,40.5,31.9,29.43,NW,315,10.5,13.4,71,0.00,,,0.00,WUHU216HW,2013-12-02 09:16:00,
2013-12-02 02:17:00,40.1,32.1,29.43,NNW,338,4.0,12.3,73,0.00,,,0.00,WUHU216HW,2013-12-02 09:17:00,
2013-12-02 02:18:00,40.0,32.0,29.43,NNW,338,4.0,12.3,73,0.00,,,0.00,WUHU216HW,2013-12-02 09:18:00,
2013-12-02 02:20:00,39.4,31.8,29.43,West,270,1.6,10.5,74,0.00,,,0.00,WUHU216HW,2013-12-02 09:20:00,
2013-12-02 02:21:00,39.2,32.0,29.43,WNW,293,2.5,10.5,75,0.00,,,0.00,WUHU216HW,2013-12-02 09:21:00,
2013-12-02 02:22:00,39.1,31.8,29.43,West,270,2.2,10.5,75,0.00,,,0.00,WUHU216HW,2013-12-02 09:22:00,
2013-12-02 02:23:00,38.9,31.6,29.43,West,270,0.0,10.5,75,0.00,,,0.00,WUHU216HW,2013-12-02 09:23:00,
2013-12-02 02:24:00,38.7,31.4,29.43,NNW,338,3.1,10.5,75,0.00,,,0.00,WUHU216HW,2013-12-02 09:24:00,
2013-12-02 02:25:00,38.5,31.6,29.44,NNW,338,4.3,10.5,76,0.00,,,0.00,WUHU216HW,2013-12-02 09:25:00,
2013-12-02 02:26:00,38.2,31.2,29.44,NW,315,2.5,10.5,76,0.00,,,0.00,WUHU216HW,2013-12-02 09:26:00,
2013-12-02 02:27:00,38.2,31.2,29.43,WNW,293,1.6,6.9,76,0.00,,,0.00,WUHU216HW,2013-12-02 09:27:00,
2013-12-02 02:28:00,38.0,31.1,29.43,West,270,2.0,6.9,76,0.00,,,0.00,WUHU216HW,2013-12-02 09:28:00,
2013-12-02 02:29:00,37.8,30.9,29.44,WNW,293,2.9,6.9,76,0.00,,,0.00,WUHU216HW,2013-12-02 09:29:00,
2013-12-02 02:30:00,37.8,30.9,29.44,WNW,293,1.6,5.4,76,0.00,,,0.00,WUHU216HW,2013-12-02 09:30:00,
2013-12-02 02:32:00,37.4,30.9,29.43,NE,45,4.0,5.4,77,0.00,,,0.00,WUHU216HW,2013-12-02 09:32:00,
2013-12-02 02:33:00,37.4,30.9,29.44,NNW,338,3.6,5.4,77,0.00,,,0.00,WUHU216HW,2013-12-02 09:33:00,
2013-12-02 02:35:00,37.6,31.7,29.43,NE,45,9.4,9.4,79,0.00,,,0.00,WUHU216HW,2013-12-02 09:35:00,
2013-12-02 02:37:00,37.8,31.9,29.43,NE,45,2.5,9.4,79,0.00,,,0.00,WUHU216HW,2013-12-02 09:37:00,
2013-12-02 02:38:00,37.8,31.9,29.43,NE,45,5.4,9.4,79,0.00,,,0.00,WUHU216HW,2013-12-02 09:38:00,
2013-12-02 02:40:00,38.0,31.8,29.43,SSE,158,6.3,9.4,78,0.00,,,0.00,WUHU216HW,2013-12-02 09:40:00,
2013-12-02 02:42:00,38.2,32.0,29.43,NW,315,3.8,9.4,78,0.00,,,0.00,WUHU216HW,2013-12-02 09:42:00,
2013-12-02 02:43:00,38.3,32.1,29.43,SSE,158,10.1,10.5,78,0.00,,,0.00,WUHU216HW,2013-12-02 09:43:00,
2013-12-02 02:46:00,38.7,32.5,29.42,SW,225,3.4,10.5,78,0.00,,,0.00,WUHU216HW,2013-12-02 09:46:00,
2013-12-02 02:48:00,39.2,32.7,29.43,NNE,23,7.8,10.5,77,0.00,,,0.00,WUHU216HW,2013-12-02 09:48:00,
2013-12-02 02:49:00,39.6,32.7,29.42,NNE,23,4.7,10.5,76,0.00,,,0.00,WUHU216HW,2013-12-02 09:49:00,
2013-12-02 02:51:00,39.6,32.7,29.42,WNW,293,3.4,10.5,76,0.00,,,0.00,WUHU216HW,2013-12-02 09:51:00,
2013-12-02 02:53:00,39.8,32.5,29.42,SW,225,4.3,10.5,75,0.00,,,0.00,WUHU216HW,2013-12-02 09:53:00,
2013-12-02 02:54:00,40.1,31.8,29.42,SSW,203,9.2,10.1,72,0.00,,,0.00,WUHU216HW,2013-12-02 09:54:00,
2013-12-02 02:55:00,40.1,31.8,29.42,SSW,203,9.2,10.1,72,0.00,,,0.00,WUHU216HW,2013-12-02 09:55:00,
2013-12-02 02:56:00,40.7,31.7,29.42,WSW,248,16.3,16.3,70,0.00,,,0.00,WUHU216HW,2013-12-02 09:56:00,
2013-12-02 02:58:00,42.3,32.1,29.42,West,270,6.3,16.3,67,0.00,,,0.00,WUHU216HW,2013-12-02 09:58:00,
2013-12-02 03:00:00,43.7,32.0,29.42,NW,315,19.7,19.7,63,0.00,,,0.00,WUHU216HW,2013-12-02 10:00:00,
2013-12-02 03:01:00,44.3,32.5,29.42,NNW,338,3.4,19.7,63,0.00,,,0.00,WUHU216HW,2013-12-02 10:01:00,
2013-12-02 03:02:00,44.5,32.7,29.42,West,270,6.9,19.7,63,0.00,,,0.00,WUHU216HW,2013-12-02 10:02:00,
2013-12-02 03:03:00,44.5,31.9,29.42,NW,315,10.3,19.7,61,0.00,,,0.00,WUHU216HW,2013-12-02 10:03:00,
2013-12-02 03:05:00,44.3,32.5,29.42,NNW,338,1.8,19.7,63,0.00,,,0.00,WUHU216HW,2013-12-02 10:05:00,
2013-12-02 03:06:00,43.6,31.8,29.41,WNW,293,7.2,19.7,63,0.00,,,0.00,WUHU216HW,2013-12-02 10:06:00,
2013-12-02 03:07:00,43.2,32.2,29.41,NNE,23,6.3,19.7,65,0.00,,,0.00,WUHU216HW,2013-12-02 10:07:00,
2013-12-02 03:08:00,42.8,32.7,29.41,WNW,293,6.0,19.7,67,0.00,,,0.00,WUHU216HW,2013-12-02 10:08:00,
2013-12-02 03:10:00,41.4,31.7,29.41,NNW,338,6.3,14.5,68,0.00,,,0.00,WUHU216HW,2013-12-02 10:10:00,
2013-12-02 03:11:00,41.0,31.7,29.41,NNW,338,4.7,14.5,69,0.00,,,0.00,WUHU216HW,2013-12-02 10:11:00,
2013-12-02 03:12:00,40.0,31.3,29.41,WSW,248,4.7,14.5,71,0.00,,,0.00,WUHU216HW,2013-12-02 10:12:00,
2013-12-02 03:13:00,39.6,31.6,29.41,NW,315,2.5,8.5,73,0.00,,,0.00,WUHU216HW,2013-12-02 10:13:00,
2013-12-02 03:14:00,39.4,31.4,29.41,NW,315,2.5,8.5,73,0.00,,,0.00,WUHU216HW,2013-12-02 10:14:00,
2013-12-02 03:16:00,39.1,31.8,29.41,NNW,338,1.6,8.5,75,0.00,,,0.00,WUHU216HW,2013-12-02 10:16:00,
2013-12-02 03:17:00,39.1,31.8,29.41,North,0,1.6,8.5,75,0.00,,,0.00,WUHU216HW,2013-12-02 10:17:00,
2013-12-02 03:18:00,38.9,31.2,29.41,WSW,248,5.4,6.3,74,0.00,,,0.00,WUHU216HW,2013-12-02 10:18:00,
2013-12-02 03:19:00,38.9,31.2,29.41,West,270,7.2,7.2,74,0.00,,,0.00,WUHU216HW,2013-12-02 10:19:00,
2013-12-02 03:21:00,39.8,31.4,29.41,WNW,293,2.2,7.2,72,0.00,,,0.00,WUHU216HW,2013-12-02 10:21:00,
2013-12-02 03:22:00,40.0,31.3,29.41,NNW,338,2.0,7.2,71,0.00,,,0.00,WUHU216HW,2013-12-02 10:22:00,
2013-12-02 03:23:00,40.3,31.7,29.41,NW,315,4.3,7.2,71,0.00,,,0.00,WUHU216HW,2013-12-02 10:23:00,
2013-12-02 03:24:00,40.5,31.9,29.41,NW,315,6.9,7.2,71,0.00,,,0.00,WUHU216HW,2013-12-02 10:24:00,
2013-12-02 03:26:00,39.8,32.1,29.41,NNE,23,5.4,7.6,74,0.00,,,0.00,WUHU216HW,2013-12-02 10:26:00,
2013-12-02 03:27:00,39.6,32.0,29.41,NNE,23,5.4,7.6,74,0.00,,,0.00,WUHU216HW,2013-12-02 10:27:00,
2013-12-02 03:28:00,39.4,31.8,29.41,NW,315,3.8,7.6,74,0.00,,,0.00,WUHU216HW,2013-12-02 10:28:00,
2013-12-02 03:29:00,39.1,31.8,29.41,NNW,338,2.7,7.6,75,0.00,,,0.00,WUHU216HW,2013-12-02 10:29:00,
2013-12-02 03:31:00,38.2,31.2,29.40,North,0,6.5,7.6,76,0.00,,,0.00,WUHU216HW,2013-12-02 10:31:00,
2013-12-02 03:32:00,38.0,31.4,29.41,North,0,6.7,7.6,77,0.00,,,0.00,WUHU216HW,2013-12-02 10:32:00,
2013-12-02 03:33:00,38.0,31.4,29.41,North,0,5.4,7.6,77,0.00,,,0.00,WUHU216HW,2013-12-02 10:33:00,
2013-12-02 03:34:00,37.8,30.9,29.40,WNW,293,3.4,7.6,76,0.00,,,0.00,WUHU216HW,2013-12-02 10:34:00,
2013-12-02 03:37:00,37.4,31.2,29.40,North,0,7.4,8.5,78,0.00,,,0.00,WUHU216HW,2013-12-02 10:37:00,
2013-12-02 03:38:00,37.4,31.2,29.40,NNW,338,2.5,8.5,78,0.00,,,0.00,WUHU216HW,2013-12-02 10:38:00,
2013-12-02 03:39:00,37.3,31.1,29.40,NNW,338,1.6,8.5,78,0.00,,,0.00,WUHU216HW,2013-12-02 10:39:00,
2013-12-02 03:42:00,37.1,31.5,29.40,NNE,23,9.8,9.8,80,0.00,,,0.00,WUHU216HW,2013-12-02 10:42:00,
2013-12-02 03:43:00,37.1,31.5,29.40,North,0,7.6,9.8,80,0.00,,,0.00,WUHU216HW,2013-12-02 10:43:00,
2013-12-02 03:44:00,37.1,31.1,29.40,North,0,5.6,9.8,79,0.00,,,0.00,WUHU216HW,2013-12-02 10:44:00,
2013-12-02 03:47:00,36.7,31.1,29.40,NNW,338,6.7,9.8,80,0.00,,,0.00,WUHU216HW,2013-12-02 10:47:00,
2013-12-02 03:48:00,36.9,31.6,29.40,North,0,2.0,9.8,81,0.00,,,0.00,WUHU216HW,2013-12-02 10:48:00,
2013-12-02 03:49:00,36.9,31.3,29.40,NNW,338,1.6,9.8,80,0.00,,,0.00,WUHU216HW,2013-12-02 10:49:00,
2013-12-02 03:53:00,36.9,31.3,29.41,NW,315,2.5,9.2,80,0.00,,,0.00,WUHU216HW,2013-12-02 10:53:00,
2013-12-02 03:54:00,36.9,31.3,29.41,NW,315,2.5,6.7,80,0.00,,,0.00,WUHU216HW,2013-12-02 10:54:00,
2013-12-02 03:55:00,36.9,31.3,29.40,NNE,23,1.8,6.7,80,0.00,,,0.00,WUHU216HW,2013-12-02 10:55:00,
2013-12-02 03:58:00,37.1,31.5,29.41,NW,315,5.8,7.8,80,0.00,,,0.00,WUHU216HW,2013-12-02 10:58:00,
2013-12-02 03:59:00,37.1,31.5,29.41,North,0,2.7,7.8,80,0.00,,,0.00,WUHU216HW,2013-12-02 10:59:00,
2013-12-02 04:00:00,37.1,31.5,29.41,NNW,338,1.8,7.8,80,0.00,,,0.00,WUHU216HW,2013-12-02 11:00:00,
2013-12-02 04:01:00,37.1,31.5,29.40,SW,225,2.2,7.8,80,0.00,,,0.00,WUHU216HW,2013-12-02 11:01:00,
2013-12-02 04:03:00,37.3,31.7,29.40,North,0,1.3,7.8,80,0.00,,,0.00,WUHU216HW,2013-12-02 11:03:00,
2013-12-02 04:04:00,37.4,31.9,29.40,NNE,23,4.5,7.8,80,0.00,,,0.00,WUHU216HW,2013-12-02 11:04:00,
2013-12-02 04:05:00,37.4,31.9,29.40,NNE,23,4.5,7.8,80,0.00,,,0.00,WUHU216HW,2013-12-02 11:05:00,
2013-12-02 04:06:00,37.4,31.5,29.40,WNW,293,8.5,8.5,79,0.00,,,0.00,WUHU216HW,2013-12-02 11:06:00,
2013-12-02 04:08:00,38.3,32.1,29.40,North,0,4.9,8.5,78,0.00,,,0.00,WUHU216HW,2013-12-02 11:08:00,
2013-12-02 04:10:00,38.5,32.6,29.40,NNE,23,5.8,8.5,79,0.00,,,0.00,WUHU216HW,2013-12-02 11:10:00,
2013-12-02 04:11:00,38.3,32.1,29.39,North,0,5.8,8.5,78,0.00,,,0.00,WUHU216HW,2013-12-02 11:11:00,
2013-12-02 04:13:00,38.2,32.0,29.39,North,0,5.4,8.5,78,0.00,,,0.00,WUHU216HW,2013-12-02 11:13:00,
2013-12-02 04:15:00,38.0,31.8,29.40,North,0,2.9,8.5,78,0.00,,,0.00,WUHU216HW,2013-12-02 11:15:00,
2013-12-02 04:16:00,38.0,31.8,29.40,NNE,23,4.3,8.5,78,0.00,,,0.00,WUHU216HW,2013-12-02 11:16:00,
2013-12-02 04:18:00,37.6,31.7,29.39,North,0,4.0,7.6,79,0.00,,,0.00,WUHU216HW,2013-12-02 11:18:00,
2013-12-02 04:20:00,37.6,32.0,29.40,North,0,2.0,7.6,80,0.00,,,0.00,WUHU216HW,2013-12-02 11:20:00,
2013-12-02 04:21:00,37.4,31.9,29.40,North,0,5.4,7.6,80,0.00,,,0.00,WUHU216HW,2013-12-02 11:21:00,
2013-12-02 04:23:00,37.3,31.7,29.40,North,0,5.4,7.6,80,0.00,,,0.00,WUHU216HW,2013-12-02 11:23:00,
2013-12-02 04:25:00,37.1,31.5,29.39,North,0,6.9,7.6,80,0.00,,,0.00,WUHU216HW,2013-12-02 11:25:00,
2013-12-02 04:26:00,37.1,31.5,29.39,NNE,23,7.4,7.6,80,0.00,,,0.00,WUHU216HW,2013-12-02 11:26:00,
2013-12-02 04:28:00,36.9,31.6,29.40,NNE,23,4.7,7.4,81,0.00,,,0.00,WUHU216HW,2013-12-02 11:28:00,
2013-12-02 04:30:00,37.1,31.8,29.40,NNE,23,1.6,7.4,81,0.00,,,0.00,WUHU216HW,2013-12-02 11:30:00,
2013-12-02 04:31:00,37.1,31.8,29.40,North,0,1.6,7.4,81,0.00,,,0.00,WUHU216HW,2013-12-02 11:31:00,
2013-12-02 04:34:00,37.1,31.5,29.40,West,270,5.4,7.4,80,0.00,,,0.00,WUHU216HW,2013-12-02 11:34:00,
2013-12-02 04:35:00,37.1,31.5,29.40,NNW,338,1.3,7.4,80,0.00,,,0.00,WUHU216HW,2013-12-02 11:35:00,
2013-12-02 04:36:00,37.1,31.5,29.40,North,0,1.3,7.4,80,0.00,,,0.00,WUHU216HW,2013-12-02 11:36:00,
2013-12-02 04:39:00,36.9,31.6,29.40,North,0,2.5,5.4,81,0.00,,,0.00,WUHU216HW,2013-12-02 11:39:00,
2013-12-02 04:40:00,36.9,31.6,29.40,NNW,338,2.5,5.4,81,0.00,,,0.00,WUHU216HW,2013-12-02 11:40:00,
2013-12-02 04:41:00,36.9,31.6,29.40,NNW,338,2.2,5.4,81,0.00,,,0.00,WUHU216HW,2013-12-02 11:41:00,
2013-12-02 04:42:00,36.9,31.6,29.40,NNW,338,2.7,5.4,81,0.00,,,0.00,WUHU216HW,2013-12-02 11:42:00,
2013-12-02 04:44:00,36.9,31.3,29.40,NW,315,0.2,4.7,80,0.00,,,0.00,WUHU216HW,2013-12-02 11:44:00,
2013-12-02 04:46:00,36.9,31.6,29.40,NNW,338,0.4,4.7,81,0.00,,,0.00,WUHU216HW,2013-12-02 11:46:00,
2013-12-02 04:47:00,36.9,31.3,29.40,NNE,23,0.7,4.7,80,0.00,,,0.00,WUHU216HW,2013-12-02 11:47:00,
2013-12-02 04:49:00,36.7,31.1,29.39,NNW,338,1.1,3.4,80,0.00,,,0.00,WUHU216HW,2013-12-02 11:49:00,
2013-12-02 04:51:00,36.7,31.1,29.39,NE,45,1.1,3.4,80,0.00,,,0.00,WUHU216HW,2013-12-02 11:51:00,
2013-12-02 04:52:00,36.7,31.4,29.39,NE,45,4.7,4.7,81,0.00,,,0.00,WUHU216HW,2013-12-02 11:52:00,
2013-12-02 04:54:00,36.7,31.1,29.40,West,270,5.8,6.5,80,0.00,,,0.00,WUHU216HW,2013-12-02 11:54:00,
2013-12-02 04:56:00,36.4,30.8,29.39,NW,315,2.5,6.5,80,0.00,,,0.00,WUHU216HW,2013-12-02 11:56:00,
2013-12-02 04:57:00,36.4,30.8,29.39,NNW,338,2.2,6.5,80,0.00,,,0.00,WUHU216HW,2013-12-02 11:57:00,
2013-12-02 05:00:00,36.4,31.3,29.39,North,0,1.6,6.5,82,0.00,,,0.00,WUHU216HW,2013-12-02 12:00:00,
2013-12-02 05:01:00,36.4,31.3,29.39,NNE,23,4.5,6.5,82,0.00,,,0.00,WUHU216HW,2013-12-02 12:01:00,
2013-12-02 05:02:00,36.4,31.7,29.39,NNE,23,3.8,6.5,83,0.00,,,0.00,WUHU216HW,2013-12-02 12:02:00,
2013-12-02 05:03:00,36.4,31.3,29.39,North,0,6.7,6.9,82,0.00,,,0.00,WUHU216HW,2013-12-02 12:03:00,
2013-12-02 05:05:00,36.4,31.7,29.39,NNW,338,5.4,6.9,83,0.00,,,0.00,WUHU216HW,2013-12-02 12:05:00,
2013-12-02 05:06:00,36.5,31.9,29.39,NNW,338,0.9,6.9,83,0.00,,,0.00,WUHU216HW,2013-12-02 12:06:00,
2013-12-02 05:07:00,36.5,31.9,29.39,NNW,338,0.9,6.9,83,0.00,,,0.00,WUHU216HW,2013-12-02 12:07:00,
2013-12-02 05:08:00,36.5,31.5,29.39,NNW,338,2.5,6.9,82,0.00,,,0.00,WUHU216HW,2013-12-02 12:08:00,
2013-12-02 05:10:00,36.7,31.7,29.39,ENE,68,3.8,6.9,82,0.00,,,0.00,WUHU216HW,2013-12-02 12:10:00,
2013-12-02 05:11:00,36.5,31.2,29.39,NW,315,2.9,6.9,81,0.00,,,0.00,WUHU216HW,2013-12-02 12:11:00,
2013-12-02 05:12:00,36.5,31.2,29.39,NW,315,2.9,6.9,81,0.00,,,0.00,WUHU216HW,2013-12-02 12:12:00,
2013-12-02 05:13:00,36.4,31.1,29.39,NNW,338,6.3,6.9,81,0.00,,,0.00,WUHU216HW,2013-12-02 12:13:00,
2013-12-02 05:15:00,36.4,31.7,29.39,NNW,338,4.7,6.9,83,0.00,,,0.00,WUHU216HW,2013-12-02 12:15:00,
2013-12-02 05:17:00,36.4,31.7,29.39,NNW,338,3.6,6.9,83,0.00,,,0.00,WUHU216HW,2013-12-02 12:17:00,
2013-12-02 05:18:00,36.5,31.9,29.39,North,0,2.2,6.9,83,0.00,,,0.00,WUHU216HW,2013-12-02 12:18:00,
2013-12-02 05:20:00,36.5,31.5,29.39,NNW,338,2.2,6.9,82,0.00,,,0.00,WUHU216HW,2013-12-02 12:20:00,
2013-12-02 05:22:00,36.4,31.3,29.39,NNW,338,5.6,6.9,82,0.00,,,0.00,WUHU216HW,2013-12-02 12:22:00,
2013-12-02 05:23:00,36.4,31.3,29.39,NW,315,5.4,6.9,82,0.00,,,0.00,WUHU216HW,2013-12-02 12:23:00,
2013-12-02 05:26:00,36.4,32.0,29.39,NW,315,2.7,7.4,84,0.00,,,0.00,WUHU216HW,2013-12-02 12:26:00,
2013-12-02 05:27:00,36.4,32.0,29.40,WNW,293,4.0,7.4,84,0.00,,,0.00,WUHU216HW,2013-12-02 12:27:00,
2013-12-02 05:28:00,36.4,31.7,29.39,NW,315,4.5,7.4,83,0.00,,,0.00,WUHU216HW,2013-12-02 12:28:00,
2013-12-02 05:30:00,36.4,31.3,29.40,West,270,5.1,7.4,82,0.00,,,0.00,WUHU216HW,2013-12-02 12:30:00,
2013-12-02 05:31:00,36.4,31.3,29.39,WNW,293,3.8,7.4,82,0.00,,,0.00,WUHU216HW,2013-12-02 12:31:00,
2013-12-02 05:32:00,36.4,31.3,29.40,West,270,3.4,7.4,82,0.00,,,0.00,WUHU216HW,2013-12-02 12:32:00,
2013-12-02 05:33:00,36.4,31.3,29.39,WNW,293,2.2,7.4,82,0.00,,,0.00,WUHU216HW,2013-12-02 12:33:00,
2013-12-02 05:34:00,36.4,31.3,29.39,West,270,4.3,7.4,82,0.00,,,0.00,WUHU216HW,2013-12-02 12:34:00,
2013-12-02 05:35:00,36.4,31.3,29.40,West,270,4.3,5.1,82,0.00,,,0.00,WUHU216HW,2013-12-02 12:35:00,
2013-12-02 05:36:00,36.4,31.3,29.40,West,270,3.6,5.1,82,0.00,,,0.00,WUHU216HW,2013-12-02 12:36:00,
2013-12-02 05:37:00,36.4,31.3,29.39,West,270,4.3,5.1,82,0.00,,,0.00,WUHU216HW,2013-12-02 12:37:00,
2013-12-02 05:38:00,36.4,31.3,29.39,West,270,4.3,5.1,82,0.00,,,0.00,WUHU216HW,2013-12-02 12:38:00,
2013-12-02 05:39:00,36.2,31.1,29.39,WSW,248,2.5,5.1,82,0.00,,,0.00,WUHU216HW,2013-12-02 12:39:00,
2013-12-02 05:41:00,36.4,31.3,29.39,West,270,1.8,5.1,82,0.00,,,0.00,WUHU216HW,2013-12-02 12:41:00,
2013-12-02 05:42:00,36.2,31.1,29.39,SW,225,1.1,5.1,82,0.00,,,0.00,WUHU216HW,2013-12-02 12:42:00,
2013-12-02 05:43:00,36.2,31.1,29.39,SSW,203,3.4,5.1,82,0.00,,,0.00,WUHU216HW,2013-12-02 12:43:00,
2013-12-02 05:44:00,36.2,30.9,29.39,SW,225,4.0,5.1,81,0.00,,,0.00,WUHU216HW,2013-12-02 12:44:00,
2013-12-02 05:47:00,36.0,30.7,29.39,SSW,203,4.3,5.4,81,0.00,,,0.00,WUHU216HW,2013-12-02 12:47:00,
2013-12-02 05:48:00,36.2,30.9,29.39,SSW,203,5.8,6.0,81,0.00,,,0.00,WUHU216HW,2013-12-02 12:48:00,
2013-12-02 05:49:00,36.2,31.1,29.39,SW,225,4.3,6.0,82,0.00,,,0.00,WUHU216HW,2013-12-02 12:49:00,
2013-12-02 05:52:00,36.4,31.3,29.39,SW,225,5.8,6.0,82,0.00,,,0.00,WUHU216HW,2013-12-02 12:52:00,
2013-12-02 05:53:00,36.4,31.3,29.39,SW,225,4.3,6.0,82,0.00,,,0.00,WUHU216HW,2013-12-02 12:53:00,
2013-12-02 05:55:00,36.4,31.3,29.39,SW,225,5.1,6.0,82,0.00,,,0.00,WUHU216HW,2013-12-02 12:55:00,
2013-12-02 05:57:00,36.5,31.5,29.39,SW,225,3.4,6.0,82,0.00,,,0.00,WUHU216HW,2013-12-02 12:57:00,
2013-12-02 05:58:00,36.7,31.7,29.39,West,270,1.8,5.8,82,0.00,,,0.00,WUHU216HW,2013-12-02 12:58:00,
2013-12-02 06:00:00,36.9,31.9,29.39,West,270,2.2,5.8,82,0.00,,,0.00,WUHU216HW,2013-12-02 13:00:00,
2013-12-02 06:02:00,37.1,32.0,29.39,SW,225,1.8,5.6,82,0.00,,,0.00,WUHU216HW,2013-12-02 13:02:00,
2013-12-02 06:03:00,37.1,32.0,29.39,SW,225,4.0,5.6,82,0.00,,,0.00,WUHU216HW,2013-12-02 13:03:00,
2013-12-02 06:04:00,37.1,31.8,29.39,SW,225,3.8,5.4,81,0.00,,,0.00,WUHU216HW,2013-12-02 13:04:00,
2013-12-02 06:05:00,37.1,31.8,29.39,SW,225,3.8,4.3,81,0.00,,,0.00,WUHU216HW,2013-12-02 13:05:00,
2013-12-02 06:07:00,37.1,31.8,29.39,WSW,248,4.0,4.0,81,0.00,,,0.00,WUHU216HW,2013-12-02 13:07:00,
2013-12-02 06:08:00,37.1,31.5,29.39,WSW,248,2.5,4.0,80,0.00,,,0.00,WUHU216HW,2013-12-02 13:08:00,
2013-12-02 06:09:00,37.1,31.5,29.39,WSW,248,2.5,4.0,80,0.00,,,0.00,WUHU216HW,2013-12-02 13:09:00,
2013-12-02 06:11:00,36.9,31.3,29.39,West,270,3.8,4.0,80,0.00,,,0.00,WUHU216HW,2013-12-02 13:11:00,
2013-12-02 06:12:00,36.9,31.6,29.39,WSW,248,2.9,4.0,81,0.00,,,0.00,WUHU216HW,2013-12-02 13:12:00,
2013-12-02 06:13:00,36.9,31.3,29.39,SW,225,2.7,4.0,80,0.00,,,0.00,WUHU216HW,2013-12-02 13:13:00,
2013-12-02 06:14:00,36.9,31.3,29.39,SW,225,3.1,4.0,80,0.00,,,0.00,WUHU216HW,2013-12-02 13:14:00,
2013-12-02 06:16:00,36.9,31.3,29.39,SW,225,4.0,4.0,80,0.00,,,0.00,WUHU216HW,2013-12-02 13:16:00,
2013-12-02 06:17:00,36.7,31.1,29.39,SW,225,4.0,4.5,80,0.00,,,0.00,WUHU216HW,2013-12-02 13:17:00,
2013-12-02 06:18:00,36.7,31.1,29.39,SW,225,4.5,4.5,80,0.00,,,0.00,WUHU216HW,2013-12-02 13:18:00,
2013-12-02 06:19:00,36.5,31.0,29.39,SW,225,6.9,6.9,80,0.00,,,0.00,WUHU216HW,2013-12-02 13:19:00,
2013-12-02 06:20:00,36.5,31.0,29.39,WSW,248,6.0,6.9,80,0.00,,,0.00,WUHU216HW,2013-12-02 13:20:00,
2013-12-02 06:21:00,36.5,31.0,29.39,WSW,248,6.0,6.9,80,0.00,,,0.00,WUHU216HW,2013-12-02 13:21:00,
2013-12-02 06:22:00,36.4,30.8,29.39,SW,225,5.1,6.9,80,0.00,,,0.00,WUHU216HW,2013-12-02 13:22:00,
2013-12-02 06:24:00,36.4,30.8,29.39,WSW,248,4.7,6.9,80,0.00,,,0.00,WUHU216HW,2013-12-02 13:24:00,
2013-12-02 06:26:00,36.4,30.8,29.39,WSW,248,5.1,6.9,80,0.00,,,0.00,WUHU216HW,2013-12-02 13:26:00,
2013-12-02 06:28:00,36.4,31.1,29.38,SW,225,4.9,6.9,81,0.00,,,0.00,WUHU216HW,2013-12-02 13:28:00,
2013-12-02 06:29:00,36.4,31.1,29.38,SW,225,5.4,6.9,81,0.00,,,0.00,WUHU216HW,2013-12-02 13:29:00,
2013-12-02 06:30:00,36.5,31.2,29.38,WSW,248,4.7,6.3,81,0.00,,,0.00,WUHU216HW,2013-12-02 13:30:00,
2013-12-02 06:31:00,36.5,31.2,29.38,WSW,248,2.7,6.0,81,0.00,,,0.00,WUHU216HW,2013-12-02 13:31:00,
2013-12-02 06:34:00,36.5,31.2,29.38,West,270,2.0,5.4,81,0.00,,,0.00,WUHU216HW,2013-12-02 13:34:00,
2013-12-02 06:35:00,36.7,31.4,29.38,West,270,2.9,5.4,81,0.00,,,0.00,WUHU216HW,2013-12-02 13:35:00,
2013-12-02 06:36:00,36.7,31.4,29.38,SW,225,5.8,5.8,81,0.00,,,0.00,WUHU216HW,2013-12-02 13:36:00,
2013-12-02 06:37:00,36.7,31.4,29.38,SW,225,5.4,6.9,81,0.00,,,0.00,WUHU216HW,2013-12-02 13:37:00,
2013-12-02 06:39:00,36.7,31.4,29.38,SW,225,6.9,6.9,81,0.00,,,0.00,WUHU216HW,2013-12-02 13:39:00,
2013-12-02 06:40:00,36.7,31.4,29.38,SSW,203,5.6,6.9,81,0.00,,,0.00,WUHU216HW,2013-12-02 13:40:00,
2013-12-02 06:41:00,36.7,31.4,29.38,SSW,203,4.0,6.9,81,0.00,,,0.00,WUHU216HW,2013-12-02 13:41:00,
2013-12-02 06:43:00,36.7,31.4,29.38,SW,225,4.9,6.9,81,0.00,,,0.00,WUHU216HW,2013-12-02 13:43:00,
2013-12-02 06:44:00,36.7,31.4,29.38,SW,225,4.5,6.9,81,0.00,,,0.00,WUHU216HW,2013-12-02 13:44:00,
2013-12-02 06:45:00,36.7,31.4,29.38,SW,225,4.7,6.9,81,0.00,,,0.00,WUHU216HW,2013-12-02 13:45:00,
2013-12-02 06:46:00,36.7,31.4,29.38,SW,225,5.1,6.9,81,0.00,,,0.00,WUHU216HW,2013-12-02 13:46:00,
2013-12-02 06:48:00,36.7,31.4,29.38,SSW,203,5.1,6.9,81,0.00,,,0.00,WUHU216HW,2013-12-02 13:48:00,
2013-12-02 06:49:00,36.9,31.6,29.38,SSW,203,5.1,6.0,81,0.00,,,0.00,WUHU216HW,2013-12-02 13:49:00,
2013-12-02 06:50:00,36.9,31.6,29.38,SW,225,4.5,5.6,81,0.00,,,0.00,WUHU216HW,2013-12-02 13:50:00,
2013-12-02 06:51:00,36.9,31.6,29.38,SW,225,4.7,5.4,81,0.00,,,0.00,WUHU216HW,2013-12-02 13:51:00,
2013-12-02 06:53:00,37.1,31.8,29.38,SW,225,5.6,6.0,81,0.00,,,0.00,WUHU216HW,2013-12-02 13:53:00,
2013-12-02 06:54:00,37.1,32.0,29.38,SW,225,6.5,6.7,82,0.00,,,0.00,WUHU216HW,2013-12-02 13:54:00,
2013-12-02 06:55:00,37.1,32.0,29.38,WSW,248,6.5,6.9,82,0.00,,,0.00,WUHU216HW,2013-12-02 13:55:00,
2013-12-02 06:56:00,37.1,32.0,29.38,WSW,248,6.5,6.9,82,0.00,,,0.00,WUHU216HW,2013-12-02 13:56:00,
2013-12-02 06:57:00,37.1,32.0,29.38,WSW,248,4.5,6.9,82,0.00,,,0.00,WUHU216HW,2013-12-02 13:57:00,
2013-12-02 06:58:00,37.1,31.8,29.38,WSW,248,5.8,6.9,81,0.00,,,0.00,WUHU216HW,2013-12-02 13:58:00,
2013-12-02 06:59:00,37.1,31.8,29.38,WSW,248,5.6,6.9,81,0.00,,,0.00,WUHU216HW,2013-12-02 13:59:00,
2013-12-02 07:01:00,37.1,31.8,29.38,WSW,248,6.5,6.9,81,0.00,,,0.00,WUHU216HW,2013-12-02 14:01:00,
2013-12-02 07:02:00,37.1,31.5,29.38,WSW,248,5.6,6.9,80,0.00,,,0.00,WUHU216HW,2013-12-02 14:02:00,
2013-12-02 07:03:00,37.1,31.8,29.38,SW,225,6.3,6.9,81,0.00,,,0.00,WUHU216HW,2013-12-02 14:03:00,
2013-12-02 07:04:00,37.1,31.8,29.38,WSW,248,6.7,7.4,81,0.00,,,0.00,WUHU216HW,2013-12-02 14:04:00,
2013-12-02 07:06:00,37.1,32.0,29.38,WSW,248,1.6,7.4,82,0.00,,,0.00,WUHU216HW,2013-12-02 14:06:00,
2013-12-02 07:07:00,37.4,32.8,29.38,WNW,293,0.2,7.4,83,0.00,,,0.00,WUHU216HW,2013-12-02 14:07:00,
2013-12-02 07:09:00,37.8,32.8,29.38,ESE,113,1.8,7.4,82,0.00,,,0.00,WUHU216HW,2013-12-02 14:09:00,
2013-12-02 07:11:00,37.8,32.8,29.38,South,180,1.3,7.4,82,0.00,,,0.00,WUHU216HW,2013-12-02 14:11:00,
2013-12-02 07:12:00,38.0,32.7,29.38,SW,225,1.6,7.4,81,0.00,,,0.00,WUHU216HW,2013-12-02 14:12:00,
2013-12-02 07:14:00,38.2,32.9,29.38,WNW,293,1.3,6.9,81,0.00,,,0.00,WUHU216HW,2013-12-02 14:14:00,
2013-12-02 07:15:00,38.3,33.0,29.38,WNW,293,1.1,6.7,81,0.00,,,0.00,WUHU216HW,2013-12-02 14:15:00,
2013-12-02 07:17:00,38.5,32.9,29.38,WSW,248,2.9,2.9,80,0.00,,,0.00,WUHU216HW,2013-12-02 14:17:00,
2013-12-02 07:19:00,38.7,33.1,29.38,WNW,293,3.8,3.8,80,0.00,,,0.00,WUHU216HW,2013-12-02 14:19:00,
2013-12-02 07:21:00,38.7,32.8,29.38,WNW,293,1.3,3.8,79,0.00,,,0.00,WUHU216HW,2013-12-02 14:21:00,
2013-12-02 07:22:00,38.7,32.8,29.38,WNW,293,2.5,3.8,79,0.00,,,0.00,WUHU216HW,2013-12-02 14:22:00,
2013-12-02 07:23:00,38.7,32.8,29.38,WNW,293,2.2,3.8,79,0.00,,,0.00,WUHU216HW,2013-12-02 14:23:00,
2013-12-02 07:24:00,38.7,32.8,29.38,WNW,293,0.4,3.8,79,0.00,,,0.00,WUHU216HW,2013-12-02 14:24:00,
2013-12-02 07:25:00,38.5,32.6,29.38,SSW,203,2.2,3.8,79,0.00,,,0.00,WUHU216HW,2013-12-02 14:25:00,
2013-12-02 07:26:00,38.5,32.6,29.38,SW,225,3.8,4.7,79,0.00,,,0.00,WUHU216HW,2013-12-02 14:26:00,
2013-12-02 07:28:00,38.5,32.6,29.38,WSW,248,6.0,6.0,79,0.00,,,0.00,WUHU216HW,2013-12-02 14:28:00,
2013-12-02 07:29:00,38.2,32.2,29.38,NW,315,4.7,6.0,79,0.00,,,0.00,WUHU216HW,2013-12-02 14:29:00,
2013-12-02 07:30:00,38.2,32.6,29.38,NNW,338,6.0,6.0,80,0.00,,,0.00,WUHU216HW,2013-12-02 14:30:00,
2013-12-02 07:32:00,38.2,32.9,29.39,NW,315,4.9,6.0,81,0.00,,,0.00,WUHU216HW,2013-12-02 14:32:00,
2013-12-02 07:33:00,38.0,32.7,29.39,NNW,338,3.4,6.0,81,0.00,,,0.00,WUHU216HW,2013-12-02 14:33:00,
2013-12-02 07:34:00,37.8,32.5,29.38,NNW,338,4.0,6.0,81,0.00,,,0.00,WUHU216HW,2013-12-02 14:34:00,
2013-12-02 07:35:00,37.6,32.6,29.38,NNW,338,4.0,6.0,82,0.00,,,0.00,WUHU216HW,2013-12-02 14:35:00,
2013-12-02 07:38:00,37.1,32.7,29.38,NW,315,11.0,11.0,84,0.00,,,0.00,WUHU216HW,2013-12-02 14:38:00,
2013-12-02 07:39:00,37.1,32.9,29.38,NW,315,8.5,11.0,85,0.00,,,0.00,WUHU216HW,2013-12-02 14:39:00,
2013-12-02 07:40:00,37.1,32.9,29.38,WNW,293,6.0,11.0,85,0.00,,,0.00,WUHU216HW,2013-12-02 14:40:00,
2013-12-02 07:43:00,37.3,32.9,29.39,WNW,293,7.4,11.0,84,0.00,,,0.00,WUHU216HW,2013-12-02 14:43:00,
2013-12-02 07:44:00,37.3,32.9,29.39,NNW,338,7.6,11.0,84,0.00,,,0.00,WUHU216HW,2013-12-02 14:44:00,
2013-12-02 07:45:00,37.3,33.1,29.39,WNW,293,8.3,11.0,85,0.00,,,0.00,WUHU216HW,2013-12-02 14:45:00,
2013-12-02 07:48:00,37.1,32.9,29.39,NW,315,8.7,11.0,85,0.00,,,0.00,WUHU216HW,2013-12-02 14:48:00,
2013-12-02 07:49:00,37.1,32.9,29.39,WNW,293,9.4,10.7,85,0.00,,,0.00,WUHU216HW,2013-12-02 14:49:00,
2013-12-02 07:50:00,36.9,32.8,29.40,WNW,293,6.3,9.8,85,0.00,,,0.00,WUHU216HW,2013-12-02 14:50:00,
2013-12-02 07:51:00,36.9,32.8,29.40,West,270,4.7,9.8,85,0.00,,,0.00,WUHU216HW,2013-12-02 14:51:00,
2013-12-02 07:53:00,36.7,32.9,29.39,NNW,338,3.6,9.8,86,0.00,,,0.00,WUHU216HW,2013-12-02 14:53:00,
2013-12-02 07:54:00,36.7,32.9,29.39,NW,315,4.0,9.8,86,0.00,,,0.00,WUHU216HW,2013-12-02 14:54:00,
2013-12-02 07:55:00,36.5,32.9,29.39,NW,315,7.6,9.4,87,0.00,,,0.00,WUHU216HW,2013-12-02 14:55:00,
2013-12-02 07:56:00,36.5,32.9,29.39,NW,315,7.6,9.4,87,0.00,,,0.00,WUHU216HW,2013-12-02 14:56:00,
2013-12-02 07:58:00,36.4,32.8,29.39,NW,315,5.1,9.4,87,0.00,,,0.00,WUHU216HW,2013-12-02 14:58:00,
2013-12-02 07:59:00,36.4,32.8,29.39,WNW,293,4.5,9.4,87,0.00,,,0.00,WUHU216HW,2013-12-02 14:59:00,
2013-12-02 08:01:00,36.4,32.8,29.39,WNW,293,6.5,8.7,87,0.00,,,0.00,WUHU216HW,2013-12-02 15:01:00,
2013-12-02 08:03:00,36.4,32.8,29.38,NNW,338,2.5,8.7,87,0.00,,,0.00,WUHU216HW,2013-12-02 15:03:00,
2013-12-02 08:04:00,36.4,32.8,29.38,NNW,338,2.5,8.7,87,0.00,,,0.00,WUHU216HW,2013-12-02 15:04:00,
2013-12-02 08:05:00,36.2,32.6,29.38,NW,315,1.8,8.3,87,0.00,,,0.00,WUHU216HW,2013-12-02 15:05:00,
2013-12-02 08:06:00,36.2,32.6,29.38,NW,315,0.4,8.3,87,0.00,,,0.00,WUHU216HW,2013-12-02 15:06:00,
2013-12-02 08:08:00,36.2,32.6,29.38,West,270,1.8,8.3,87,0.00,,,0.00,WUHU216HW,2013-12-02 15:08:00,
2013-12-02 08:09:00,36.2,32.6,29.38,WNW,293,1.6,8.3,87,0.00,,,0.00,WUHU216HW,2013-12-02 15:09:00,
2013-12-02 08:10:00,36.2,32.3,29.38,WNW,293,1.1,6.5,86,0.00,,,0.00,WUHU216HW,2013-12-02 15:10:00,
2013-12-02 08:11:00,36.2,32.6,29.38,North,0,1.6,5.1,87,0.00,,,0.00,WUHU216HW,2013-12-02 15:11:00,
2013-12-02 08:12:00,36.2,32.6,29.38,North,0,3.6,3.6,87,0.00,,,0.00,WUHU216HW,2013-12-02 15:12:00,
2013-12-02 08:14:00,36.0,32.4,29.38,NNE,23,3.1,5.6,87,0.00,,,0.00,WUHU216HW,2013-12-02 15:14:00,
2013-12-02 08:15:00,36.0,32.4,29.39,NNW,338,2.7,5.6,87,0.00,,,0.00,WUHU216HW,2013-12-02 15:15:00,
2013-12-02 08:16:00,35.8,32.2,29.39,NNW,338,1.8,5.6,87,0.00,,,0.00,WUHU216HW,2013-12-02 15:16:00,
2013-12-02 08:18:00,35.8,32.2,29.38,NNW,338,1.1,5.6,87,0.00,,,0.00,WUHU216HW,2013-12-02 15:18:00,
2013-12-02 08:19:00,35.8,32.6,29.38,WNW,293,2.5,5.6,88,0.00,,,0.00,WUHU216HW,2013-12-02 15:19:00,
2013-12-02 08:20:00,35.8,32.6,29.38,West,270,2.5,5.6,88,0.00,,,0.00,WUHU216HW,2013-12-02 15:20:00,
2013-12-02 08:21:00,35.8,32.6,29.39,WNW,293,4.3,5.6,88,0.00,,,0.00,WUHU216HW,2013-12-02 15:21:00,
2013-12-02 08:23:00,36.0,32.8,29.39,WNW,293,5.8,6.5,88,0.00,,,0.00,WUHU216HW,2013-12-02 15:23:00,
2013-12-02 08:24:00,36.0,32.8,29.39,NW,315,4.0,6.5,88,0.00,,,0.00,WUHU216HW,2013-12-02 15:24:00,
2013-12-02 08:25:00,36.0,32.8,29.39,NW,315,4.7,6.5,88,0.00,,,0.00,WUHU216HW,2013-12-02 15:25:00,
2013-12-02 08:26:00,36.0,32.8,29.39,NW,315,6.3,6.5,88,0.00,,,0.00,WUHU216HW,2013-12-02 15:26:00,
2013-12-02 08:28:00,36.2,33.0,29.39,WNW,293,7.6,9.2,88,0.00,,,0.00,WUHU216HW,2013-12-02 15:28:00,
2013-12-02 08:29:00,36.0,32.8,29.40,WNW,293,5.6,9.2,88,0.00,,,0.00,WUHU216HW,2013-12-02 15:29:00,
2013-12-02 08:30:00,36.2,33.0,29.39,WNW,293,4.9,9.2,88,0.00,,,0.00,WUHU216HW,2013-12-02 15:30:00,
2013-12-02 08:31:00,36.2,33.0,29.39,NW,315,6.0,9.2,88,0.00,,,0.00,WUHU216HW,2013-12-02 15:31:00,
2013-12-02 08:32:00,36.2,33.0,29.40,NW,315,7.2,9.2,88,0.00,,,0.00,WUHU216HW,2013-12-02 15:32:00,
2013-12-02 08:33:00,36.0,32.8,29.40,NW,315,5.8,9.2,88,0.00,,,0.00,WUHU216HW,2013-12-02 15:33:00,
2013-12-02 08:34:00,36.0,32.8,29.40,NNW,338,6.3,9.2,88,0.00,,,0.00,WUHU216HW,2013-12-02 15:34:00,
2013-12-02 08:35:00,36.0,32.8,29.40,WNW,293,4.5,9.2,88,0.00,,,0.00,WUHU216HW,2013-12-02 15:35:00,
2013-12-02 08:36:00,36.0,32.8,29.40,NNW,338,6.9,9.2,88,0.00,,,0.00,WUHU216HW,2013-12-02 15:36:00,
2013-12-02 08:37:00,36.0,33.0,29.40,NNW,338,6.3,9.2,89,0.00,,,0.00,WUHU216HW,2013-12-02 15:37:00,
2013-12-02 08:38:00,35.8,32.6,29.40,NW,315,10.5,10.5,88,0.00,,,0.00,WUHU216HW,2013-12-02 15:38:00,
2013-12-02 08:39:00,35.8,32.6,29.40,NW,315,10.7,10.7,88,0.00,,,0.00,WUHU216HW,2013-12-02 15:39:00,
2013-12-02 08:41:00,35.6,32.4,29.40,NW,315,8.5,10.7,88,0.00,,,0.00,WUHU216HW,2013-12-02 15:41:00,
2013-12-02 08:42:00,35.5,32.2,29.40,NW,315,8.5,10.7,88,0.00,,,0.00,WUHU216HW,2013-12-02 15:42:00,
2013-12-02 08:44:00,35.1,32.1,29.40,NW,315,7.6,10.7,89,0.00,,,0.00,WUHU216HW,2013-12-02 15:44:00,
2013-12-02 08:46:00,34.9,32.0,29.40,NW,315,7.6,10.7,89,0.00,,,0.00,WUHU216HW,2013-12-02 15:46:00,
2013-12-02 08:47:00,34.9,32.0,29.40,NW,315,7.6,10.7,89,0.01,,,0.01,WUHU216HW,2013-12-02 15:47:00,
2013-12-02 08:49:00,34.9,32.0,29.39,North,0,0.0,10.7,89,0.01,,,0.01,WUHU216HW,2013-12-02 15:49:00,
2013-12-02 08:50:00,34.9,32.0,29.40,North,0,0.0,10.7,89,0.01,,,0.01,WUHU216HW,2013-12-02 15:50:00,
2013-12-02 08:51:00,34.9,32.2,29.40,North,0,0.0,8.5,90,0.01,,,0.01,WUHU216HW,2013-12-02 15:51:00,
2013-12-02 08:52:00,34.9,32.0,29.40,North,0,0.0,8.5,89,0.01,,,0.01,WUHU216HW,2013-12-02 15:52:00,
2013-12-02 08:54:00,34.9,32.0,29.40,NNW,338,6.3,7.6,89,0.01,,,0.01,WUHU216HW,2013-12-02 15:54:00,
2013-12-02 08:55:00,34.9,32.0,29.40,NW,315,7.6,7.6,89,0.01,,,0.01,WUHU216HW,2013-12-02 15:55:00,
2013-12-02 08:56:00,35.1,32.1,29.40,NNW,338,6.7,8.1,89,0.01,,,0.01,WUHU216HW,2013-12-02 15:56:00,
2013-12-02 08:57:00,35.1,32.1,29.40,NW,315,8.5,8.5,89,0.01,,,0.01,WUHU216HW,2013-12-02 15:57:00,
2013-12-02 08:59:00,35.1,32.1,29.40,NW,315,8.3,8.5,89,0.01,,,0.01,WUHU216HW,2013-12-02 15:59:00,
2013-12-02 09:00:00,34.9,32.0,29.39,NW,315,7.4,8.5,89,0.01,,,0.01,WUHU216HW,2013-12-02 16:00:00,
2013-12-02 09:02:00,35.1,32.1,29.39,NW,315,7.8,8.5,89,0.01,,,0.01,WUHU216HW,2013-12-02 16:02:00,
2013-12-02 09:05:00,35.3,32.6,29.39,North,0,8.5,8.7,90,0.01,,,0.01,WUHU216HW,2013-12-02 16:05:00,
2013-12-02 09:07:00,35.5,32.8,29.39,NW,315,11.4,11.4,90,0.01,,,0.01,WUHU216HW,2013-12-02 16:07:00,
2013-12-02 09:10:00,35.8,33.4,29.39,NW,315,10.3,11.4,91,0.02,,,0.02,WUHU216HW,2013-12-02 16:10:00,
2013-12-02 09:12:00,36.0,33.6,29.39,NNW,338,13.0,14.5,91,0.02,,,0.02,WUHU216HW,2013-12-02 16:12:00,
2013-12-02 09:13:00,36.2,33.8,29.39,NNW,338,11.9,14.5,91,0.02,,,0.02,WUHU216HW,2013-12-02 16:13:00,
2013-12-02 09:15:00,36.0,33.3,29.38,NNW,338,11.9,14.5,90,0.02,,,0.02,WUHU216HW,2013-12-02 16:15:00,
2013-12-02 09:17:00,36.0,33.3,29.38,NNW,338,9.2,14.5,90,0.02,,,0.02,WUHU216HW,2013-12-02 16:17:00,
2013-12-02 09:18:00,35.8,33.1,29.38,NNW,338,10.1,14.5,90,0.02,,,0.02,WUHU216HW,2013-12-02 16:18:00,
2013-12-02 09:19:00,35.8,33.1,29.38,NNW,338,11.4,14.5,90,0.02,,,0.02,WUHU216HW,2013-12-02 16:19:00,
2013-12-02 09:20:00,35.8,33.1,29.38,NNW,338,10.1,14.5,90,0.02,,,0.02,WUHU216HW,2013-12-02 16:20:00,
2013-12-02 09:21:00,35.8,33.1,29.38,North,0,8.5,14.5,90,0.02,,,0.02,WUHU216HW,2013-12-02 16:21:00,
2013-12-02 09:22:00,35.6,32.9,29.38,NNW,338,8.1,14.5,90,0.02,,,0.02,WUHU216HW,2013-12-02 16:22:00,
2013-12-02 09:23:00,35.6,32.9,29.38,NW,315,9.8,14.5,90,0.02,,,0.02,WUHU216HW,2013-12-02 16:23:00,
2013-12-02 09:24:00,35.6,32.9,29.38,NNW,338,9.8,14.5,90,0.02,,,0.02,WUHU216HW,2013-12-02 16:24:00,
2013-12-02 09:25:00,35.6,32.9,29.38,NNW,338,10.5,14.5,90,0.02,,,0.02,WUHU216HW,2013-12-02 16:25:00,
2013-12-02 09:26:00,35.6,32.9,29.38,NNW,338,10.3,13.2,90,0.02,,,0.02,WUHU216HW,2013-12-02 16:26:00,
2013-12-02 09:27:00,35.6,32.9,29.38,NNW,338,7.8,13.2,90,0.02,,,0.02,WUHU216HW,2013-12-02 16:27:00,
2013-12-02 09:29:00,35.8,33.1,29.38,NNW,338,8.7,13.2,90,0.02,,,0.02,WUHU216HW,2013-12-02 16:29:00,
2013-12-02 09:30:00,35.8,33.1,29.38,NNW,338,7.4,13.2,90,0.02,,,0.02,WUHU216HW,2013-12-02 16:30:00,
2013-12-02 09:31:00,36.0,33.3,29.38,NNW,338,7.6,13.2,90,0.02,,,0.02,WUHU216HW,2013-12-02 16:31:00,
2013-12-02 09:32:00,36.0,33.3,29.38,NNW,338,9.4,13.2,90,0.02,,,0.02,WUHU216HW,2013-12-02 16:32:00,
2013-12-02 09:34:00,36.0,33.3,29.39,NNW,338,12.8,14.1,90,0.02,,,0.02,WUHU216HW,2013-12-02 16:34:00,
2013-12-02 09:35:00,36.2,33.8,29.39,NNW,338,12.1,14.1,91,0.02,,,0.02,WUHU216HW,2013-12-02 16:35:00,
2013-12-02 09:37:00,36.4,33.7,29.39,NW,315,15.0,15.7,90,0.02,,,0.02,WUHU216HW,2013-12-02 16:37:00,
2013-12-02 09:38:00,36.5,33.8,29.39,NW,315,14.1,17.0,90,0.02,,,0.02,WUHU216HW,2013-12-02 16:38:00,
2013-12-02 09:40:00,37.3,34.3,29.38,NNW,338,12.1,18.8,89,0.02,,,0.02,WUHU216HW,2013-12-02 16:40:00,
2013-12-02 09:41:00,37.4,34.7,29.38,NW,315,15.4,18.8,90,0.02,,,0.02,WUHU216HW,2013-12-02 16:41:00,
2013-12-02 09:42:00,37.6,34.7,29.39,NNW,338,15.7,18.8,89,0.02,,,0.02,WUHU216HW,2013-12-02 16:42:00,
2013-12-02 09:43:00,37.8,34.8,29.39,NW,315,14.5,18.8,89,0.02,,,0.02,WUHU216HW,2013-12-02 16:43:00,
2013-12-02 09:45:00,37.8,34.6,29.39,NW,315,19.5,19.5,88,0.02,,,0.02,WUHU216HW,2013-12-02 16:45:00,
2013-12-02 09:46:00,37.8,34.2,29.39,NNW,338,16.1,22.1,87,0.01,,,0.02,WUHU216HW,2013-12-02 16:46:00,
2013-12-02 09:47:00,37.8,34.2,29.39,NNW,338,14.8,22.1,87,0.01,,,0.02,WUHU216HW,2013-12-02 16:47:00,
2013-12-02 09:48:00,38.0,34.4,29.38,NNW,338,22.1,22.1,87,0.01,,,0.02,WUHU216HW,2013-12-02 16:48:00,
2013-12-02 09:50:00,37.8,34.2,29.38,NW,315,16.8,22.1,87,0.01,,,0.02,WUHU216HW,2013-12-02 16:50:00,
2013-12-02 09:51:00,37.8,34.2,29.38,NW,315,17.2,22.1,87,0.01,,,0.02,WUHU216HW,2013-12-02 16:51:00,
2013-12-02 09:52:00,37.6,34.0,29.39,NW,315,20.8,22.1,87,0.01,,,0.02,WUHU216HW,2013-12-02 16:52:00,
2013-12-02 09:53:00,37.6,34.0,29.38,NNW,338,18.8,22.1,87,0.01,,,0.02,WUHU216HW,2013-12-02 16:53:00,
2013-12-02 09:55:00,37.1,33.5,29.38,NNW,338,17.9,22.1,87,0.01,,,0.02,WUHU216HW,2013-12-02 16:55:00,
2013-12-02 09:56:00,37.1,33.5,29.38,NNW,338,16.3,22.1,87,0.01,,,0.02,WUHU216HW,2013-12-02 16:56:00,
2013-12-02 09:57:00,36.9,33.7,29.38,NNW,338,14.5,22.1,88,0.01,,,0.02,WUHU216HW,2013-12-02 16:57:00,
2013-12-02 09:58:00,36.9,33.3,29.38,NW,315,19.0,21.5,87,0.01,,,0.02,WUHU216HW,2013-12-02 16:58:00,
2013-12-02 10:00:00,36.9,33.3,29.38,NNW,338,16.1,21.5,87,0.01,,,0.02,WUHU216HW,2013-12-02 17:00:00,
2013-12-02 10:01:00,36.7,33.5,29.38,NNW,338,16.1,21.5,88,0.01,,,0.02,WUHU216HW,2013-12-02 17:01:00,
2013-12-02 10:02:00,36.7,33.5,29.38,NW,315,17.4,20.8,88,0.01,,,0.02,WUHU216HW,2013-12-02 17:02:00,
2013-12-02 10:03:00,36.7,33.1,29.38,NW,315,15.4,20.1,87,0.01,,,0.02,WUHU216HW,2013-12-02 17:03:00,
2013-12-02 10:04:00,36.9,33.3,29.38,NNW,338,14.3,20.1,87,0.01,,,0.02,WUHU216HW,2013-12-02 17:04:00,
2013-12-02 10:05:00,36.9,33.3,29.38,NNW,338,17.9,20.1,87,0.01,,,0.02,WUHU216HW,2013-12-02 17:05:00,
2013-12-02 10:06:00,37.1,33.5,29.38,NNW,338,13.4,20.1,87,0.01,,,0.02,WUHU216HW,2013-12-02 17:06:00,
2013-12-02 10:07:00,37.1,33.5,29.38,NNW,338,18.3,20.1,87,0.00,,,0.02,WUHU216HW,2013-12-02 17:07:00,
2013-12-02 10:08:00,36.9,33.0,29.38,NNW,338,18.8,20.1,86,0.00,,,0.02,WUHU216HW,2013-12-02 17:08:00,
2013-12-02 10:09:00,37.1,33.5,29.38,NNW,338,14.5,20.1,87,0.00,,,0.02,WUHU216HW,2013-12-02 17:09:00,
2013-12-02 10:11:00,37.1,33.5,29.38,NW,315,12.3,19.9,87,0.00,,,0.02,WUHU216HW,2013-12-02 17:11:00,
2013-12-02 10:12:00,37.3,33.7,29.38,NNW,338,16.6,19.9,87,0.00,,,0.02,WUHU216HW,2013-12-02 17:12:00,
2013-12-02 10:13:00,37.3,33.4,29.38,NNW,338,17.2,19.9,86,0.00,,,0.02,WUHU216HW,2013-12-02 17:13:00,
2013-12-02 10:14:00,37.4,33.6,29.38,NNW,338,14.1,18.8,86,0.00,,,0.02,WUHU216HW,2013-12-02 17:14:00,
2013-12-02 10:16:00,37.4,33.6,29.38,NNW,338,11.4,18.8,86,0.00,,,0.02,WUHU216HW,2013-12-02 17:16:00,
2013-12-02 10:17:00,37.6,34.0,29.38,NW,315,14.5,18.8,87,0.00,,,0.02,WUHU216HW,2013-12-02 17:17:00,
2013-12-02 10:18:00,37.8,33.9,29.39,NW,315,12.8,18.8,86,0.00,,,0.02,WUHU216HW,2013-12-02 17:18:00,
2013-12-02 10:19:00,38.0,34.1,29.38,NW,315,12.5,17.7,86,0.00,,,0.02,WUHU216HW,2013-12-02 17:19:00,
2013-12-02 10:21:00,38.3,34.5,29.38,NNW,338,12.1,17.7,86,0.00,,,0.02,WUHU216HW,2013-12-02 17:21:00,
2013-12-02 10:22:00,38.5,34.1,29.38,NW,315,10.7,17.2,84,0.00,,,0.02,WUHU216HW,2013-12-02 17:22:00,
2013-12-02 10:23:00,38.7,34.6,29.39,NW,315,17.9,17.9,85,0.00,,,0.02,WUHU216HW,2013-12-02 17:23:00,
2013-12-02 10:25:00,38.9,34.5,29.38,NW,315,13.2,17.9,84,0.00,,,0.02,WUHU216HW,2013-12-02 17:25:00,
2013-12-02 10:26:00,38.9,34.2,29.38,NNW,338,14.1,17.9,83,0.00,,,0.02,WUHU216HW,2013-12-02 17:26:00,
2013-12-02 10:28:00,38.9,33.3,29.39,NW,315,15.9,17.9,80,0.00,,,0.02,WUHU216HW,2013-12-02 17:28:00,
2013-12-02 10:29:00,38.9,33.6,29.39,NW,315,18.6,18.6,81,0.00,,,0.02,WUHU216HW,2013-12-02 17:29:00,
2013-12-02 10:30:00,38.9,33.6,29.39,NNW,338,17.2,18.6,81,0.00,,,0.02,WUHU216HW,2013-12-02 17:30:00,
2013-12-02 10:31:00,39.1,33.5,29.39,NNW,338,16.3,18.6,80,0.00,,,0.02,WUHU216HW,2013-12-02 17:31:00,
2013-12-02 10:33:00,39.1,34.0,29.39,NW,315,11.4,18.6,82,0.00,,,0.02,WUHU216HW,2013-12-02 17:33:00,
2013-12-02 10:34:00,39.1,34.4,29.39,NW,315,11.9,18.6,83,0.00,,,0.02,WUHU216HW,2013-12-02 17:34:00,
2013-12-02 10:35:00,38.9,33.8,29.39,NNW,338,12.1,18.6,82,0.00,,,0.02,WUHU216HW,2013-12-02 17:35:00,
2013-12-02 10:36:00,38.5,33.5,29.39,NNW,338,15.2,18.6,82,0.00,,,0.02,WUHU216HW,2013-12-02 17:36:00,
2013-12-02 10:39:00,38.5,33.5,29.38,NW,315,17.2,18.6,82,0.00,,,0.02,WUHU216HW,2013-12-02 17:39:00,
2013-12-02 10:40:00,38.5,33.9,29.39,NNW,338,16.3,18.6,83,0.00,,,0.02,WUHU216HW,2013-12-02 17:40:00,
2013-12-02 10:41:00,38.7,34.6,29.38,NW,315,10.7,17.2,85,0.00,,,0.02,WUHU216HW,2013-12-02 17:41:00,
2013-12-02 10:44:00,38.5,33.9,29.38,NW,315,16.1,18.6,83,0.00,,,0.02,WUHU216HW,2013-12-02 17:44:00,
2013-12-02 10:45:00,38.3,33.9,29.39,NW,315,14.5,18.6,84,0.00,,,0.02,WUHU216HW,2013-12-02 17:45:00,
2013-12-02 10:46:00,38.3,33.7,29.39,NW,315,15.0,18.6,83,0.00,,,0.02,WUHU216HW,2013-12-02 17:46:00,
2013-12-02 10:49:00,38.2,33.5,29.39,NW,315,13.9,18.6,83,0.00,,,0.02,WUHU216HW,2013-12-02 17:49:00,
2013-12-02 10:50:00,38.0,33.6,29.39,NW,315,10.7,18.6,84,0.00,,,0.02,WUHU216HW,2013-12-02 17:50:00,
2013-12-02 10:51:00,38.0,33.6,29.39,NNW,338,14.8,18.6,84,0.00,,,0.02,WUHU216HW,2013-12-02 17:51:00,
2013-12-02 10:54:00,38.0,33.6,29.39,NW,315,11.2,16.1,84,0.00,,,0.02,WUHU216HW,2013-12-02 17:54:00,
2013-12-02 10:56:00,38.0,33.3,29.39,NW,315,9.2,16.1,83,0.00,,,0.02,WUHU216HW,2013-12-02 17:56:00,
2013-12-02 10:57:00,38.0,33.3,29.39,NNW,338,12.1,16.1,83,0.00,,,0.02,WUHU216HW,2013-12-02 17:57:00,
2013-12-02 10:59:00,37.8,33.1,29.39,NW,315,11.4,15.0,83,0.00,,,0.02,WUHU216HW,2013-12-02 17:59:00,
2013-12-02 11:01:00,37.6,33.0,29.39,NW,315,7.8,15.0,83,0.00,,,0.02,WUHU216HW,2013-12-02 18:01:00,
2013-12-02 11:02:00,37.6,33.0,29.39,NW,315,10.1,15.0,83,0.00,,,0.02,WUHU216HW,2013-12-02 18:02:00,
2013-12-02 11:05:00,37.6,33.2,29.39,NW,315,9.2,13.2,84,0.00,,,0.02,WUHU216HW,2013-12-02 18:05:00,
2013-12-02 11:06:00,37.4,33.0,29.39,NNW,338,8.5,13.2,84,0.00,,,0.02,WUHU216HW,2013-12-02 18:06:00,
2013-12-02 11:07:00,37.4,33.0,29.39,NW,315,9.8,13.2,84,0.00,,,0.02,WUHU216HW,2013-12-02 18:07:00,
2013-12-02 11:10:00,37.1,32.9,29.39,NNW,338,6.9,12.5,85,0.00,,,0.02,WUHU216HW,2013-12-02 18:10:00,
2013-12-02 11:11:00,37.1,32.9,29.38,NNW,338,6.7,12.5,85,0.00,,,0.02,WUHU216HW,2013-12-02 18:11:00,
2013-12-02 11:12:00,37.1,32.9,29.39,NNW,338,6.7,12.5,85,0.00,,,0.02,WUHU216HW,2013-12-02 18:12:00,
2013-12-02 11:15:00,36.9,32.8,29.38,NNW,338,8.3,13.0,85,0.00,,,0.02,WUHU216HW,2013-12-02 18:15:00,
2013-12-02 11:16:00,36.9,33.0,29.38,NW,315,5.1,13.0,86,0.00,,,0.02,WUHU216HW,2013-12-02 18:16:00,
2013-12-02 11:17:00,36.9,33.0,29.38,NNW,338,6.9,13.0,86,0.00,,,0.02,WUHU216HW,2013-12-02 18:17:00,
2013-12-02 11:20:00,36.7,32.9,29.38,NNW,338,8.9,13.0,86,0.00,,,0.02,WUHU216HW,2013-12-02 18:20:00,
2013-12-02 11:21:00,36.7,32.9,29.38,NNW,338,8.5,13.0,86,0.00,,,0.02,WUHU216HW,2013-12-02 18:21:00,
2013-12-02 11:22:00,36.7,33.1,29.38,NW,315,8.5,13.0,87,0.00,,,0.02,WUHU216HW,2013-12-02 18:22:00,
2013-12-02 11:23:00,36.7,33.1,29.38,NW,315,9.4,11.6,87,0.00,,,0.02,WUHU216HW,2013-12-02 18:23:00,
2013-12-02 11:25:00,36.5,32.9,29.38,NNW,338,7.8,9.6,87,0.00,,,0.02,WUHU216HW,2013-12-02 18:25:00,
2013-12-02 11:26:00,36.5,32.9,29.38,NW,315,6.0,9.4,87,0.00,,,0.02,WUHU216HW,2013-12-02 18:26:00,
2013-12-02 11:27:00,36.4,32.8,29.38,NW,315,8.3,9.4,87,0.00,,,0.02,WUHU216HW,2013-12-02 18:27:00,
2013-12-02 11:28:00,36.5,32.9,29.38,NNW,338,8.1,9.4,87,0.00,,,0.02,WUHU216HW,2013-12-02 18:28:00,
2013-12-02 11:30:00,36.5,32.9,29.38,NW,315,6.5,9.4,87,0.00,,,0.02,WUHU216HW,2013-12-02 18:30:00,
2013-12-02 11:31:00,36.5,32.9,29.38,NW,315,6.5,9.4,87,0.00,,,0.02,WUHU216HW,2013-12-02 18:31:00,
2013-12-02 11:32:00,36.5,33.3,29.38,WNW,293,8.1,9.4,88,0.00,,,0.02,WUHU216HW,2013-12-02 18:32:00,
2013-12-02 11:33:00,36.5,33.3,29.38,NW,315,7.6,9.4,88,0.00,,,0.02,WUHU216HW,2013-12-02 18:33:00,
2013-12-02 11:35:00,36.4,32.8,29.38,NW,315,7.6,8.7,87,0.00,,,0.02,WUHU216HW,2013-12-02 18:35:00,
2013-12-02 11:36:00,36.4,32.8,29.38,NW,315,7.6,8.7,87,0.00,,,0.02,WUHU216HW,2013-12-02 18:36:00,
2013-12-02 11:38:00,36.4,32.8,29.38,NW,315,9.8,10.3,87,0.00,,,0.02,WUHU216HW,2013-12-02 18:38:00,
2013-12-02 11:41:00,36.0,32.4,29.39,NNW,338,9.8,12.1,87,0.00,,,0.02,WUHU216HW,2013-12-02 18:41:00,
2013-12-02 11:42:00,36.0,32.8,29.39,NNW,338,9.6,12.1,88,0.00,,,0.02,WUHU216HW,2013-12-02 18:42:00,
2013-12-02 11:43:00,35.6,32.4,29.39,NW,315,9.6,12.1,88,0.00,,,0.02,WUHU216HW,2013-12-02 18:43:00,
2013-12-02 11:44:00,35.6,32.4,29.39,NW,315,12.3,12.5,88,0.00,,,0.02,WUHU216HW,2013-12-02 18:44:00,
2013-12-02 11:46:00,35.1,31.9,29.39,NW,315,8.7,14.3,88,0.00,,,0.02,WUHU216HW,2013-12-02 18:46:00,
2013-12-02 11:47:00,34.9,31.7,29.39,NNW,338,8.9,14.3,88,0.00,,,0.02,WUHU216HW,2013-12-02 18:47:00,
2013-12-02 11:48:00,34.9,31.7,29.38,NNW,338,8.3,14.3,88,0.00,,,0.02,WUHU216HW,2013-12-02 18:48:00,
2013-12-02 11:49:00,34.7,31.5,29.38,NNW,338,6.0,14.3,88,0.00,,,0.02,WUHU216HW,2013-12-02 18:49:00,
2013-12-02 11:50:00,34.6,31.3,29.38,NNW,338,10.5,14.3,88,0.00,,,0.02,WUHU216HW,2013-12-02 18:50:00,
2013-12-02 11:51:00,34.4,31.4,29.38,NW,315,9.8,14.3,89,0.00,,,0.02,WUHU216HW,2013-12-02 18:51:00,
2013-12-02 11:52:00,34.4,31.4,29.39,NW,315,9.8,14.3,89,0.00,,,0.02,WUHU216HW,2013-12-02 18:52:00,
2013-12-02 11:54:00,34.2,31.2,29.38,NW,315,12.3,14.3,89,0.00,,,0.02,WUHU216HW,2013-12-02 18:54:00,
2013-12-02 11:55:00,33.8,30.9,29.38,WNW,293,8.9,14.3,89,0.00,,,0.02,WUHU216HW,2013-12-02 18:55:00,
2013-12-02 11:56:00,33.8,30.9,29.39,NW,315,8.3,12.8,89,0.00,,,0.02,WUHU216HW,2013-12-02 18:56:00,
2013-12-02 11:57:00,33.8,30.9,29.38,NW,315,8.3,12.8,89,0.00,,,0.02,WUHU216HW,2013-12-02 18:57:00,
2013-12-02 11:59:00,33.5,30.5,29.38,NW,315,7.4,12.8,89,0.00,,,0.02,WUHU216HW,2013-12-02 18:59:00,
2013-12-02 12:00:00,33.5,30.8,29.38,NW,315,8.7,12.8,90,0.00,,,0.02,WUHU216HW,2013-12-02 19:00:00,
2013-12-02 12:02:00,33.3,30.7,29.38,NNW,338,7.2,12.8,90,0.00,,,0.02,WUHU216HW,2013-12-02 19:02:00,
2013-12-02 12:04:00,33.3,30.7,29.38,NW,315,12.1,12.8,90,0.00,,,0.02,WUHU216HW,2013-12-02 19:04:00,
2013-12-02 12:05:00,33.3,30.7,29.38,NW,315,12.1,12.1,90,0.00,,,0.02,WUHU216HW,2013-12-02 19:05:00,
2013-12-02 12:07:00,33.3,31.0,29.37,NNW,338,9.8,12.1,91,0.00,,,0.02,WUHU216HW,2013-12-02 19:07:00,
2013-12-02 12:08:00,33.3,31.0,29.37,NW,315,8.1,12.1,91,0.00,,,0.02,WUHU216HW,2013-12-02 19:08:00,
2013-12-02 12:09:00,33.3,31.0,29.37,NW,315,6.9,12.1,91,0.01,,,0.03,WUHU216HW,2013-12-02 19:09:00,
2013-12-02 12:10:00,33.5,31.1,29.37,NW,315,6.3,12.1,91,0.01,,,0.03,WUHU216HW,2013-12-02 19:10:00,
2013-12-02 12:11:00,33.5,31.1,29.37,NW,315,8.1,12.1,91,0.01,,,0.03,WUHU216HW,2013-12-02 19:11:00,
2013-12-02 12:12:00,33.5,31.1,29.37,NW,315,7.8,12.1,91,0.01,,,0.03,WUHU216HW,2013-12-02 19:12:00,
2013-12-02 12:13:00,33.3,31.0,29.36,NW,315,6.7,12.1,91,0.01,,,0.03,WUHU216HW,2013-12-02 19:13:00,
2013-12-02 12:14:00,33.3,31.1,29.36,NW,315,9.4,12.1,92,0.01,,,0.03,WUHU216HW,2013-12-02 19:14:00,
2013-12-02 12:16:00,33.3,31.1,29.36,NW,315,9.8,11.0,92,0.01,,,0.03,WUHU216HW,2013-12-02 19:16:00,
2013-12-02 12:17:00,33.3,31.1,29.36,NNW,338,9.8,11.0,92,0.01,,,0.03,WUHU216HW,2013-12-02 19:17:00,
2013-12-02 12:18:00,33.1,31.1,29.36,NW,315,8.9,11.0,92,0.01,,,0.03,WUHU216HW,2013-12-02 19:18:00,
2013-12-02 12:19:00,33.1,31.1,29.36,NW,315,8.5,11.0,92,0.01,,,0.03,WUHU216HW,2013-12-02 19:19:00,
2013-12-02 12:21:00,33.1,31.1,29.36,NNW,338,8.7,11.0,92,0.01,,,0.03,WUHU216HW,2013-12-02 19:21:00,
2013-12-02 12:22:00,33.1,31.1,29.36,NW,315,7.4,11.0,92,0.01,,,0.03,WUHU216HW,2013-12-02 19:22:00,
2013-12-02 12:23:00,32.9,30.9,29.36,NW,315,6.5,11.0,92,0.01,,,0.03,WUHU216HW,2013-12-02 19:23:00,
2013-12-02 12:24:00,32.9,30.9,29.36,NW,315,7.2,10.7,92,0.01,,,0.03,WUHU216HW,2013-12-02 19:24:00,
2013-12-02 12:26:00,32.9,30.9,29.36,NW,315,6.5,10.7,92,0.01,,,0.03,WUHU216HW,2013-12-02 19:26:00,
2013-12-02 12:27:00,32.8,30.7,29.37,NW,315,6.3,10.7,92,0.01,,,0.03,WUHU216HW,2013-12-02 19:27:00,
2013-12-02 12:29:00,32.8,30.7,29.36,NNW,338,5.4,10.7,92,0.01,,,0.03,WUHU216HW,2013-12-02 19:29:00,
2013-12-02 12:31:00,32.8,30.7,29.37,NW,315,5.6,9.4,92,0.01,,,0.03,WUHU216HW,2013-12-02 19:31:00,
2013-12-02 12:32:00,32.8,30.7,29.37,WNW,293,5.4,8.1,92,0.01,,,0.03,WUHU216HW,2013-12-02 19:32:00,
2013-12-02 12:34:00,32.8,30.7,29.37,WNW,293,4.3,8.1,92,0.01,,,0.03,WUHU216HW,2013-12-02 19:34:00,
2013-12-02 12:35:00,32.8,30.7,29.38,WNW,293,3.8,8.1,92,0.01,,,0.03,WUHU216HW,2013-12-02 19:35:00,
2013-12-02 12:37:00,32.9,30.9,29.38,NW,315,4.3,8.1,92,0.01,,,0.03,WUHU216HW,2013-12-02 19:37:00,
2013-12-02 12:38:00,32.9,30.9,29.38,NW,315,4.7,8.1,92,0.01,,,0.03,WUHU216HW,2013-12-02 19:38:00,
2013-12-02 12:39:00,33.1,31.1,29.38,WNW,293,5.6,8.1,92,0.01,,,0.03,WUHU216HW,2013-12-02 19:39:00,
2013-12-02 12:41:00,33.1,31.1,29.38,NW,315,5.1,6.5,92,0.01,,,0.03,WUHU216HW,2013-12-02 19:41:00,
2013-12-02 12:42:00,33.1,31.1,29.38,NW,315,6.3,6.3,92,0.01,,,0.03,WUHU216HW,2013-12-02 19:42:00,
2013-12-02 12:44:00,33.1,31.1,29.38,WNW,293,6.7,6.7,92,0.01,,,0.03,WUHU216HW,2013-12-02 19:44:00,
2013-12-02 12:46:00,33.3,31.1,29.38,WNW,293,4.7,7.6,92,0.01,,,0.03,WUHU216HW,2013-12-02 19:46:00,
2013-12-02 12:47:00,33.3,31.1,29.38,WNW,293,8.3,8.3,92,0.01,,,0.03,WUHU216HW,2013-12-02 19:47:00,
2013-12-02 12:48:00,33.3,31.1,29.38,NW,315,6.5,8.3,92,0.01,,,0.03,WUHU216HW,2013-12-02 19:48:00,
2013-12-02 12:49:00,33.5,31.3,29.37,WNW,293,9.6,9.6,92,0.01,,,0.03,WUHU216HW,2013-12-02 19:49:00,
2013-12-02 12:51:00,33.5,31.3,29.37,NW,315,6.3,9.6,92,0.01,,,0.03,WUHU216HW,2013-12-02 19:51:00,
2013-12-02 12:52:00,33.5,31.3,29.37,NW,315,6.9,9.6,92,0.01,,,0.03,WUHU216HW,2013-12-02 19:52:00,
2013-12-02 12:53:00,33.5,31.3,29.37,NW,315,5.1,9.6,92,0.01,,,0.03,WUHU216HW,2013-12-02 19:53:00,
2013-12-02 12:54:00,33.5,31.3,29.38,NW,315,8.5,9.6,92,0.01,,,0.03,WUHU216HW,2013-12-02 19:54:00,
2013-12-02 12:56:00,33.5,30.8,29.37,NW,315,8.3,9.6,90,0.01,,,0.03,WUHU216HW,2013-12-02 19:56:00,
2013-12-02 12:57:00,33.7,31.0,29.37,NW,315,8.3,9.6,90,0.01,,,0.03,WUHU216HW,2013-12-02 19:57:00,
2013-12-02 12:58:00,33.7,31.0,29.37,NW,315,8.3,9.6,90,0.01,,,0.03,WUHU216HW,2013-12-02 19:58:00,
2013-12-02 12:59:00,33.7,30.7,29.36,NW,315,7.6,9.6,89,0.01,,,0.03,WUHU216HW,2013-12-02 19:59:00,
2013-12-02 13:01:00,33.7,30.7,29.37,NW,315,9.2,9.4,89,0.01,,,0.03,WUHU216HW,2013-12-02 20:01:00,
2013-12-02 13:02:00,33.7,30.7,29.37,NW,315,7.4,9.4,89,0.01,,,0.03,WUHU216HW,2013-12-02 20:02:00,
2013-12-02 13:03:00,33.7,30.7,29.37,NW,315,7.4,9.4,89,0.01,,,0.03,WUHU216HW,2013-12-02 20:03:00,
2013-12-02 13:05:00,33.7,31.0,29.37,NNW,338,6.9,9.4,90,0.01,,,0.03,WUHU216HW,2013-12-02 20:05:00,
2013-12-02 13:07:00,33.7,31.0,29.37,NW,315,6.9,9.2,90,0.00,,,0.03,WUHU216HW,2013-12-02 20:07:00,
2013-12-02 13:08:00,33.5,30.8,29.36,NNW,338,9.8,9.8,90,0.00,,,0.03,WUHU216HW,2013-12-02 20:08:00,
2013-12-02 13:10:00,33.5,30.8,29.36,NNW,338,12.8,12.8,90,0.00,,,0.03,WUHU216HW,2013-12-02 20:10:00,
2013-12-02 13:12:00,32.6,29.4,29.36,NW,315,10.5,15.4,88,0.00,,,0.03,WUHU216HW,2013-12-02 20:12:00,
2013-12-02 13:13:00,32.6,29.4,29.36,NW,315,10.5,15.4,88,0.00,,,0.03,WUHU216HW,2013-12-02 20:13:00,
2013-12-02 13:15:00,31.5,28.7,29.35,NW,315,21.3,21.3,89,0.00,,,0.03,WUHU216HW,2013-12-02 20:15:00,
2013-12-02 13:16:00,31.3,28.5,29.35,NNW,338,17.4,21.3,89,0.00,,,0.03,WUHU216HW,2013-12-02 20:16:00,
2013-12-02 13:18:00,30.8,28.0,29.36,NW,315,18.8,21.5,89,0.00,,,0.03,WUHU216HW,2013-12-02 20:18:00,
2013-12-02 13:20:00,30.2,27.5,29.37,WNW,293,22.6,22.6,89,0.00,,,0.03,WUHU216HW,2013-12-02 20:20:00,
2013-12-02 13:21:00,30.2,27.5,29.37,NW,315,18.6,22.6,89,0.00,,,0.03,WUHU216HW,2013-12-02 20:21:00,
2013-12-02 13:23:00,29.9,26.8,29.37,NW,315,20.6,23.3,88,0.00,,,0.03,WUHU216HW,2013-12-02 20:23:00,
2013-12-02 13:24:00,29.9,26.8,29.37,WNW,293,23.3,23.3,88,0.00,,,0.03,WUHU216HW,2013-12-02 20:24:00,
2013-12-02 13:25:00,29.5,26.5,29.37,NW,315,13.2,23.3,88,0.00,,,0.03,WUHU216HW,2013-12-02 20:25:00,
2013-12-02 13:26:00,29.3,26.3,29.37,NW,315,15.0,23.3,88,0.00,,,0.03,WUHU216HW,2013-12-02 20:26:00,
2013-12-02 13:28:00,29.2,26.1,29.37,NW,315,17.9,23.3,88,0.00,,,0.03,WUHU216HW,2013-12-02 20:28:00,
2013-12-02 13:29:00,29.2,26.1,29.38,NW,315,17.2,23.3,88,0.00,,,0.03,WUHU216HW,2013-12-02 20:29:00,
2013-12-02 13:30:00,29.0,25.9,29.38,WNW,293,23.7,23.7,88,0.00,,,0.03,WUHU216HW,2013-12-02 20:30:00,
2013-12-02 13:31:00,28.8,25.8,29.38,WNW,293,22.4,23.7,88,0.00,,,0.03,WUHU216HW,2013-12-02 20:31:00,
2013-12-02 13:33:00,28.8,25.8,29.38,NW,315,22.4,23.7,88,0.00,,,0.03,WUHU216HW,2013-12-02 20:33:00,
2013-12-02 13:34:00,28.8,25.8,29.38,NW,315,22.4,23.7,88,0.00,,,0.03,WUHU216HW,2013-12-02 20:34:00,
2013-12-02 13:36:00,28.4,25.4,29.38,NW,315,24.4,24.4,88,0.00,,,0.03,WUHU216HW,2013-12-02 20:36:00,
2013-12-02 13:38:00,28.1,25.0,29.39,NW,315,23.5,27.1,88,0.00,,,0.03,WUHU216HW,2013-12-02 20:38:00,
2013-12-02 13:39:00,27.9,24.9,29.39,WNW,293,24.6,27.1,88,0.00,,,0.03,WUHU216HW,2013-12-02 20:39:00,
2013-12-02 13:41:00,27.7,24.7,29.39,WNW,293,24.4,27.1,88,0.00,,,0.03,WUHU216HW,2013-12-02 20:41:00,
2013-12-02 13:42:00,27.5,24.5,29.40,NW,315,27.3,28.4,88,0.00,,,0.03,WUHU216HW,2013-12-02 20:42:00,
2013-12-02 13:43:00,27.4,24.3,29.40,NW,315,24.6,28.4,88,0.00,,,0.03,WUHU216HW,2013-12-02 20:43:00,
2013-12-02 13:44:00,27.4,24.3,29.40,NW,315,24.8,28.4,88,0.00,,,0.03,WUHU216HW,2013-12-02 20:44:00,
2013-12-02 13:46:00,26.6,23.6,29.41,WNW,293,25.9,29.5,88,0.00,,,0.03,WUHU216HW,2013-12-02 20:46:00,
2013-12-02 13:47:00,26.3,23.2,29.41,NW,315,25.9,30.9,88,0.00,,,0.03,WUHU216HW,2013-12-02 20:47:00,
2013-12-02 13:48:00,26.3,23.2,29.42,NW,315,28.6,30.9,88,0.00,,,0.03,WUHU216HW,2013-12-02 20:48:00,
2013-12-02 13:49:00,26.3,23.5,29.42,NW,315,25.9,30.9,89,0.00,,,0.03,WUHU216HW,2013-12-02 20:49:00,
2013-12-02 13:52:00,26.1,23.3,29.42,WNW,293,17.0,30.9,89,0.00,,,0.03,WUHU216HW,2013-12-02 20:52:00,
2013-12-02 13:54:00,26.1,23.6,29.42,WNW,293,19.7,30.9,90,0.00,,,0.03,WUHU216HW,2013-12-02 20:54:00,
2013-12-02 13:55:00,25.7,23.0,29.43,NW,315,23.0,30.9,89,0.00,,,0.03,WUHU216HW,2013-12-02 20:55:00,
2013-12-02 13:57:00,25.6,22.8,29.43,NW,315,22.4,30.9,89,0.00,,,0.03,WUHU216HW,2013-12-02 20:57:00,
2013-12-02 13:58:00,25.6,22.8,29.43,NW,315,21.5,28.6,89,0.00,,,0.03,WUHU216HW,2013-12-02 20:58:00,
2013-12-02 13:59:00,25.6,22.8,29.43,NW,315,14.3,28.4,89,0.00,,,0.03,WUHU216HW,2013-12-02 20:59:00,
2013-12-02 14:00:00,25.6,23.0,29.43,NW,315,18.8,24.4,90,0.00,,,0.03,WUHU216HW,2013-12-02 21:00:00,
2013-12-02 14:02:00,24.8,21.8,29.43,NW,315,25.5,25.5,88,0.00,,,0.03,WUHU216HW,2013-12-02 21:02:00,
2013-12-02 14:03:00,24.8,21.8,29.43,NNW,338,22.6,25.5,88,0.00,,,0.03,WUHU216HW,2013-12-02 21:03:00,
2013-12-02 14:04:00,24.7,21.6,29.43,NW,315,28.2,28.2,88,0.00,,,0.03,WUHU216HW,2013-12-02 21:04:00,
2013-12-02 14:05:00,24.1,21.1,29.43,NW,315,25.1,29.5,88,0.00,,,0.03,WUHU216HW,2013-12-02 21:05:00,
2013-12-02 14:07:00,23.8,20.7,29.43,NW,315,28.2,29.5,88,0.00,,,0.03,WUHU216HW,2013-12-02 21:07:00,
2013-12-02 14:08:00,23.6,20.5,29.43,WNW,293,23.9,29.5,88,0.00,,,0.03,WUHU216HW,2013-12-02 21:08:00,
2013-12-02 14:09:00,23.6,20.5,29.43,NW,315,22.6,29.5,88,0.00,,,0.03,WUHU216HW,2013-12-02 21:09:00,
2013-12-02 14:10:00,23.6,20.5,29.43,NW,315,23.9,29.5,88,0.00,,,0.03,WUHU216HW,2013-12-02 21:10:00,
2013-12-02 14:13:00,23.8,20.7,29.43,WNW,293,21.5,29.5,88,0.00,,,0.03,WUHU216HW,2013-12-02 21:13:00,
2013-12-02 14:14:00,23.8,20.7,29.43,WNW,293,17.2,28.2,88,0.00,,,0.03,WUHU216HW,2013-12-02 21:14:00,
2013-12-02 14:15:00,23.9,20.9,29.43,WNW,293,20.4,28.2,88,0.00,,,0.03,WUHU216HW,2013-12-02 21:15:00,
2013-12-02 14:18:00,24.3,21.5,29.43,NW,315,17.2,28.2,89,0.00,,,0.03,WUHU216HW,2013-12-02 21:18:00,
2013-12-02 14:19:00,24.5,21.7,29.43,NW,315,17.2,28.2,89,0.00,,,0.03,WUHU216HW,2013-12-02 21:19:00,
2013-12-02 14:20:00,24.8,22.1,29.43,NW,315,20.8,24.6,89,0.00,,,0.03,WUHU216HW,2013-12-02 21:20:00,
2013-12-02 14:21:00,24.8,22.1,29.42,NW,315,21.5,24.6,89,0.00,,,0.03,WUHU216HW,2013-12-02 21:21:00,
2013-12-02 14:23:00,24.8,21.8,29.42,NW,315,19.9,24.6,88,0.00,,,0.03,WUHU216HW,2013-12-02 21:23:00,
2013-12-02 14:24:00,24.8,22.1,29.42,NW,315,22.4,24.6,89,0.00,,,0.03,WUHU216HW,2013-12-02 21:24:00,
2013-12-02 14:25:00,24.7,21.6,29.43,NW,315,20.1,29.5,88,0.00,,,0.03,WUHU216HW,2013-12-02 21:25:00,
2013-12-02 14:26:00,24.7,21.6,29.43,WNW,293,26.6,29.5,88,0.00,,,0.03,WUHU216HW,2013-12-02 21:26:00,
2013-12-02 14:28:00,24.7,21.6,29.43,WNW,293,19.7,29.5,88,0.00,,,0.03,WUHU216HW,2013-12-02 21:28:00,
2013-12-02 14:29:00,24.7,21.6,29.43,WNW,293,20.1,29.5,88,0.00,,,0.03,WUHU216HW,2013-12-02 21:29:00,
2013-12-02 14:30:00,24.7,21.6,29.43,WNW,293,17.2,29.5,88,0.00,,,0.03,WUHU216HW,2013-12-02 21:30:00,
2013-12-02 14:31:00,24.7,21.6,29.43,NW,315,22.6,29.5,88,0.00,,,0.03,WUHU216HW,2013-12-02 21:31:00,
2013-12-02 14:33:00,24.5,21.4,29.44,WNW,293,23.0,29.5,88,0.00,,,0.03,WUHU216HW,2013-12-02 21:33:00,
2013-12-02 14:34:00,24.7,21.6,29.44,WNW,293,18.6,29.5,88,0.00,,,0.03,WUHU216HW,2013-12-02 21:34:00,
2013-12-02 14:35:00,24.7,21.6,29.44,WNW,293,21.5,28.2,88,0.00,,,0.03,WUHU216HW,2013-12-02 21:35:00,
2013-12-02 14:36:00,24.7,21.6,29.44,NW,315,15.7,28.2,88,0.00,,,0.03,WUHU216HW,2013-12-02 21:36:00,
2013-12-02 14:37:00,24.8,21.5,29.44,NW,315,18.6,28.2,87,0.00,,,0.03,WUHU216HW,2013-12-02 21:37:00,
2013-12-02 14:39:00,24.8,21.5,29.43,NW,315,14.1,23.3,87,0.00,,,0.03,WUHU216HW,2013-12-02 21:39:00,
2013-12-02 14:40:00,24.8,21.5,29.43,NW,315,15.0,23.3,87,0.00,,,0.03,WUHU216HW,2013-12-02 21:40:00,
2013-12-02 14:42:00,24.8,21.0,29.43,NNW,338,25.3,25.3,85,0.00,,,0.03,WUHU216HW,2013-12-02 21:42:00,
2013-12-02 14:44:00,24.8,21.0,29.43,NNW,338,19.2,25.3,85,0.00,,,0.03,WUHU216HW,2013-12-02 21:44:00,
2013-12-02 14:45:00,24.8,21.0,29.43,NW,315,23.0,25.3,85,0.00,,,0.03,WUHU216HW,2013-12-02 21:45:00,
2013-12-02 14:47:00,24.8,20.7,29.43,NNW,338,14.3,25.3,84,0.00,,,0.03,WUHU216HW,2013-12-02 21:47:00,
2013-12-02 14:50:00,24.7,20.3,29.43,NW,315,17.2,25.3,83,0.00,,,0.03,WUHU216HW,2013-12-02 21:50:00,
2013-12-02 14:53:00,24.8,20.2,29.43,NW,315,17.7,23.0,82,0.00,,,0.03,WUHU216HW,2013-12-02 21:53:00,
2013-12-02 14:55:00,24.8,20.2,29.43,NW,315,17.7,20.8,82,0.00,,,0.03,WUHU216HW,2013-12-02 21:55:00,
2013-12-02 14:58:00,24.5,19.5,29.43,NW,315,16.6,20.6,81,0.00,,,0.03,WUHU216HW,2013-12-02 21:58:00,
2013-12-02 15:00:00,24.5,19.3,29.43,WNW,293,19.2,20.6,80,0.00,,,0.03,WUHU216HW,2013-12-02 22:00:00,
2013-12-02 15:01:00,24.7,19.4,29.44,WNW,293,18.6,20.6,80,0.00,,,0.03,WUHU216HW,2013-12-02 22:01:00,
2013-12-02 15:03:00,24.5,19.3,29.44,NNW,338,16.1,20.6,80,0.00,,,0.03,WUHU216HW,2013-12-02 22:03:00,
2013-12-02 15:05:00,24.5,19.3,29.44,NNW,338,8.7,20.6,80,0.00,,,0.03,WUHU216HW,2013-12-02 22:05:00,
2013-12-02 15:06:00,24.5,19.3,29.44,NNW,338,11.9,20.6,80,0.00,,,0.03,WUHU216HW,2013-12-02 22:06:00,
2013-12-02 15:09:00,24.1,18.9,29.44,North,0,6.3,20.6,80,0.00,,,0.03,WUHU216HW,2013-12-02 22:09:00,
2013-12-02 15:10:00,23.8,18.8,29.45,NNW,338,10.7,20.6,81,0.00,,,0.03,WUHU216HW,2013-12-02 22:10:00,
2013-12-02 15:11:00,23.8,18.5,29.45,NNW,338,5.6,20.6,80,0.00,,,0.03,WUHU216HW,2013-12-02 22:11:00,
2013-12-02 15:14:00,24.1,18.9,29.46,NNW,338,9.8,15.0,80,0.00,,,0.03,WUHU216HW,2013-12-02 22:14:00,
2013-12-02 15:15:00,24.3,19.4,29.45,NNW,338,6.3,15.0,81,0.00,,,0.03,WUHU216HW,2013-12-02 22:15:00,
2013-12-02 15:16:00,24.5,19.3,29.45,North,0,4.7,14.3,80,0.00,,,0.03,WUHU216HW,2013-12-02 22:16:00,
2013-12-02 15:19:00,24.5,18.9,29.45,NNW,338,9.6,14.3,79,0.00,,,0.03,WUHU216HW,2013-12-02 22:19:00,
2013-12-02 15:20:00,24.3,19.1,29.45,North,0,5.8,14.3,80,0.00,,,0.03,WUHU216HW,2013-12-02 22:20:00,
2013-12-02 15:21:00,24.3,19.1,29.45,NNW,338,6.7,14.3,80,0.00,,,0.03,WUHU216HW,2013-12-02 22:21:00,
2013-12-02 15:22:00,24.3,19.1,29.45,NNW,338,9.8,12.8,80,0.00,,,0.03,WUHU216HW,2013-12-02 22:22:00,
2013-12-02 15:24:00,24.5,19.3,29.46,North,0,8.5,12.8,80,0.00,,,0.03,WUHU216HW,2013-12-02 22:24:00,
2013-12-02 15:25:00,24.5,19.3,29.46,NNW,338,13.0,13.0,80,0.00,,,0.03,WUHU216HW,2013-12-02 22:25:00,
2013-12-02 15:26:00,24.5,18.9,29.46,NNW,338,12.8,13.0,79,0.00,,,0.03,WUHU216HW,2013-12-02 22:26:00,
2013-12-02 15:27:00,24.7,18.8,29.46,NNW,338,18.3,18.3,78,0.00,,,0.03,WUHU216HW,2013-12-02 22:27:00,
2013-12-02 15:29:00,24.3,18.5,29.46,NW,315,15.0,18.3,78,0.00,,,0.03,WUHU216HW,2013-12-02 22:29:00,
2013-12-02 15:30:00,24.7,18.5,29.46,NW,315,22.6,22.6,77,0.00,,,0.03,WUHU216HW,2013-12-02 22:30:00,
2013-12-02 15:31:00,24.7,18.8,29.46,NW,315,18.6,22.6,78,0.00,,,0.03,WUHU216HW,2013-12-02 22:31:00,
2013-12-02 15:32:00,24.8,19.0,29.46,NW,315,15.7,22.6,78,0.00,,,0.03,WUHU216HW,2013-12-02 22:32:00,
2013-12-02 15:35:00,24.8,18.6,29.45,NW,315,19.2,25.9,77,0.00,,,0.03,WUHU216HW,2013-12-02 22:35:00,
2013-12-02 15:36:00,24.8,18.6,29.45,WNW,293,24.6,25.9,77,0.00,,,0.03,WUHU216HW,2013-12-02 22:36:00,
2013-12-02 15:37:00,24.8,18.6,29.45,NW,315,24.2,25.9,77,0.00,,,0.03,WUHU216HW,2013-12-02 22:37:00,
2013-12-02 15:38:00,24.8,19.0,29.45,WNW,293,22.1,25.9,78,0.00,,,0.03,WUHU216HW,2013-12-02 22:38:00,
2013-12-02 15:40:00,24.7,18.5,29.45,NNW,338,23.3,25.9,77,0.00,,,0.03,WUHU216HW,2013-12-02 22:40:00,
2013-12-02 15:41:00,24.3,18.5,29.46,NW,315,23.0,25.9,78,0.00,,,0.03,WUHU216HW,2013-12-02 22:41:00,
2013-12-02 15:42:00,24.1,18.5,29.46,NW,315,20.8,25.9,79,0.00,,,0.03,WUHU216HW,2013-12-02 22:42:00,
2013-12-02 15:43:00,24.1,18.5,29.46,WNW,293,21.0,25.9,79,0.00,,,0.03,WUHU216HW,2013-12-02 22:43:00,
2013-12-02 15:44:00,24.1,18.3,29.46,NW,315,21.0,25.9,78,0.00,,,0.03,WUHU216HW,2013-12-02 22:44:00,
2013-12-02 15:45:00,24.1,18.3,29.46,NW,315,18.8,25.3,78,0.00,,,0.03,WUHU216HW,2013-12-02 22:45:00,
2013-12-02 15:46:00,23.9,18.1,29.46,NW,315,21.3,25.3,78,0.00,,,0.03,WUHU216HW,2013-12-02 22:46:00,
2013-12-02 15:48:00,23.8,18.3,29.47,NW,315,18.6,23.9,79,0.00,,,0.03,WUHU216HW,2013-12-02 22:48:00,
2013-12-02 15:49:00,23.8,17.7,29.47,WNW,293,22.6,23.3,77,0.00,,,0.03,WUHU216HW,2013-12-02 22:49:00,
2013-12-02 15:50:00,23.8,17.7,29.47,NW,315,17.2,23.3,77,0.00,,,0.03,WUHU216HW,2013-12-02 22:50:00,
2013-12-02 15:51:00,23.8,17.7,29.47,NW,315,18.3,23.3,77,0.00,,,0.03,WUHU216HW,2013-12-02 22:51:00,
2013-12-02 15:52:00,23.8,17.3,29.47,NW,315,24.4,24.4,76,0.00,,,0.03,WUHU216HW,2013-12-02 22:52:00,
2013-12-02 15:53:00,23.8,17.3,29.47,WNW,293,20.1,24.4,76,0.00,,,0.03,WUHU216HW,2013-12-02 22:53:00,
2013-12-02 15:54:00,23.8,17.3,29.47,NW,315,24.6,24.6,76,0.00,,,0.03,WUHU216HW,2013-12-02 22:54:00,
2013-12-02 15:55:00,23.8,17.3,29.47,NW,315,18.3,24.6,76,0.00,,,0.03,WUHU216HW,2013-12-02 22:55:00,
2013-12-02 15:56:00,23.8,17.3,29.47,NW,315,21.9,24.6,76,0.00,,,0.03,WUHU216HW,2013-12-02 22:56:00,
2013-12-02 15:57:00,23.6,17.1,29.47,NW,315,17.2,24.6,76,0.00,,,0.03,WUHU216HW,2013-12-02 22:57:00,
2013-12-02 15:58:00,23.6,17.1,29.47,NW,315,21.5,24.6,76,0.00,,,0.03,WUHU216HW,2013-12-02 22:58:00,
2013-12-02 15:59:00,23.4,16.7,29.47,NW,315,25.1,25.1,75,0.00,,,0.03,WUHU216HW,2013-12-02 22:59:00,
2013-12-02 16:01:00,23.4,16.7,29.48,NW,315,16.3,25.1,75,0.00,,,0.03,WUHU216HW,2013-12-02 23:01:00,
2013-12-02 16:02:00,23.4,16.9,29.48,NW,315,20.8,25.1,76,0.00,,,0.03,WUHU216HW,2013-12-02 23:02:00,
2013-12-02 16:03:00,23.2,17.1,29.48,WNW,293,20.4,25.1,77,0.00,,,0.03,WUHU216HW,2013-12-02 23:03:00,
2013-12-02 16:04:00,23.2,17.1,29.48,WNW,293,19.7,25.1,77,0.00,,,0.03,WUHU216HW,2013-12-02 23:04:00,
2013-12-02 16:06:00,23.2,17.1,29.48,WNW,293,20.8,25.1,77,0.00,,,0.03,WUHU216HW,2013-12-02 23:06:00,
2013-12-02 16:07:00,23.2,17.1,29.48,WNW,293,22.4,25.1,77,0.00,,,0.03,WUHU216HW,2013-12-02 23:07:00,
2013-12-02 16:09:00,23.0,16.9,29.49,WNW,293,15.0,25.1,77,0.00,,,0.03,WUHU216HW,2013-12-02 23:09:00,
2013-12-02 16:10:00,22.9,16.8,29.49,WNW,293,18.8,25.1,77,0.00,,,0.03,WUHU216HW,2013-12-02 23:10:00,
2013-12-02 16:11:00,22.7,16.6,29.49,WNW,293,17.2,25.1,77,0.00,,,0.03,WUHU216HW,2013-12-02 23:11:00,
2013-12-02 16:12:00,22.5,16.4,29.50,WNW,293,19.9,25.1,77,0.00,,,0.03,WUHU216HW,2013-12-02 23:12:00,
2013-12-02 16:14:00,22.3,16.5,29.50,West,270,17.9,25.1,78,0.00,,,0.03,WUHU216HW,2013-12-02 23:14:00,
2013-12-02 16:15:00,22.1,16.7,29.50,WNW,293,17.7,25.1,79,0.00,,,0.03,WUHU216HW,2013-12-02 23:15:00,
2013-12-02 16:16:00,22.0,16.5,29.50,WNW,293,14.5,25.1,79,0.00,,,0.03,WUHU216HW,2013-12-02 23:16:00,
2013-12-02 16:17:00,22.0,16.5,29.50,WNW,293,14.5,25.1,79,0.00,,,0.03,WUHU216HW,2013-12-02 23:17:00,
2013-12-02 16:20:00,21.8,16.6,29.50,NW,315,16.3,19.9,80,0.00,,,0.03,WUHU216HW,2013-12-02 23:20:00,
2013-12-02 16:22:00,21.8,16.8,29.50,WNW,293,15.7,19.9,81,0.00,,,0.03,WUHU216HW,2013-12-02 23:22:00,
2013-12-02 16:25:00,21.6,16.9,29.50,NW,315,18.6,19.5,82,0.00,,,0.03,WUHU216HW,2013-12-02 23:25:00,
2013-12-02 16:27:00,21.6,17.2,29.50,NW,315,17.4,19.5,83,0.00,,,0.03,WUHU216HW,2013-12-02 23:27:00,
2013-12-02 16:28:00,21.4,17.0,29.50,NW,315,14.8,19.5,83,0.00,,,0.03,WUHU216HW,2013-12-02 23:28:00,
2013-12-02 16:30:00,21.4,17.0,29.50,NW,315,16.3,18.6,83,0.00,,,0.03,WUHU216HW,2013-12-02 23:30:00,
2013-12-02 16:31:00,21.4,16.7,29.51,NW,315,14.1,18.6,82,0.00,,,0.03,WUHU216HW,2013-12-02 23:31:00,
2013-12-02 16:32:00,21.4,16.7,29.51,WNW,293,15.7,18.6,82,0.00,,,0.03,WUHU216HW,2013-12-02 23:32:00,
2013-12-02 16:33:00,21.4,16.7,29.51,WNW,293,15.0,18.6,82,0.00,,,0.03,WUHU216HW,2013-12-02 23:33:00,
2013-12-02 16:35:00,21.2,16.8,29.51,WNW,293,16.1,18.3,83,0.00,,,0.03,WUHU216HW,2013-12-02 23:35:00,
2013-12-02 16:37:00,21.2,16.6,29.51,WNW,293,15.7,18.3,82,0.00,,,0.03,WUHU216HW,2013-12-02 23:37:00,
2013-12-02 16:38:00,21.2,16.6,29.50,NW,315,15.4,16.3,82,0.00,,,0.03,WUHU216HW,2013-12-02 23:38:00,
2013-12-02 16:40:00,21.1,16.4,29.50,NW,315,15.0,18.6,82,0.00,,,0.03,WUHU216HW,2013-12-02 23:40:00,
2013-12-02 16:41:00,20.9,16.2,29.50,NW,315,15.2,18.6,82,0.00,,,0.03,WUHU216HW,2013-12-02 23:41:00,
2013-12-02 16:43:00,20.7,16.3,29.50,NW,315,16.1,18.6,83,0.00,,,0.03,WUHU216HW,2013-12-02 23:43:00,
2013-12-02 16:44:00,20.5,15.8,29.50,NW,315,16.6,18.6,82,0.00,,,0.03,WUHU216HW,2013-12-02 23:44:00,
2013-12-02 16:45:00,20.3,15.9,29.50,NW,315,15.4,18.6,83,0.00,,,0.03,WUHU216HW,2013-12-02 23:45:00,
2013-12-02 16:46:00,20.2,15.8,29.50,NW,315,16.3,18.6,83,0.00,,,0.03,WUHU216HW,2013-12-02 23:46:00,
2013-12-02 16:48:00,20.0,15.6,29.50,WNW,293,21.5,21.5,83,0.00,,,0.03,WUHU216HW,2013-12-02 23:48:00,
2013-12-02 16:49:00,19.8,15.4,29.50,WNW,293,19.7,21.5,83,0.00,,,0.03,WUHU216HW,2013-12-02 23:49:00,
2013-12-02 16:51:00,19.8,15.1,29.50,NW,315,14.1,21.5,82,0.00,,,0.03,WUHU216HW,2013-12-02 23:51:00,
2013-12-02 16:53:00,19.6,14.9,29.50,NW,315,20.8,21.5,82,0.00,,,0.03,WUHU216HW,2013-12-02 23:53:00,
2013-12-02 16:55:00,19.3,14.6,29.50,NW,315,20.1,21.5,82,0.00,,,0.03,WUHU216HW,2013-12-02 23:55:00,
2013-12-02 16:56:00,19.3,14.6,29.49,NW,315,20.1,21.5,82,0.00,,,0.03,WUHU216HW,2013-12-02 23:56:00,
2013-12-02 16:58:00,19.1,14.1,29.49,WNW,293,18.3,21.5,81,0.00,,,0.03,WUHU216HW,2013-12-02 23:58:00,
2013-12-02 16:59:00,19.1,13.9,29.49,NW,315,21.5,21.5,80,0.00,,,0.03,WUHU216HW,2013-12-02 23:59:00,
2013-12-02 17:01:00,19.1,14.4,29.50,WNW,293,18.8,23.0,82,0.00,,,0.03,WUHU216HW,2013-12-03 00:01:00,
2013-12-02 17:02:00,19.1,14.4,29.50,WNW,293,14.3,23.0,82,0.00,,,0.03,WUHU216HW,2013-12-03 00:02:00,
2013-12-02 17:03:00,18.9,14.2,29.50,NW,315,17.0,23.0,82,0.00,,,0.03,WUHU216HW,2013-12-03 00:03:00,
2013-12-02 17:04:00,18.9,14.2,29.50,WNW,293,15.7,23.0,82,0.00,,,0.03,WUHU216HW,2013-12-03 00:04:00,
2013-12-02 17:07:00,18.9,14.2,29.51,WNW,293,15.9,23.0,82,0.00,,,0.03,WUHU216HW,2013-12-03 00:07:00,
2013-12-02 17:08:00,18.9,14.2,29.51,NW,315,17.0,23.0,82,0.00,,,0.03,WUHU216HW,2013-12-03 00:08:00,
2013-12-02 17:09:00,18.9,14.2,29.51,NW,315,15.0,23.0,82,0.00,,,0.03,WUHU216HW,2013-12-03 00:09:00,
2013-12-02 17:10:00,18.9,14.2,29.51,NW,315,18.6,23.0,82,0.00,,,0.03,WUHU216HW,2013-12-03 00:10:00,
2013-12-02 17:12:00,18.7,14.0,29.51,NW,315,17.2,21.0,82,0.00,,,0.03,WUHU216HW,2013-12-03 00:12:00,
2013-12-02 17:13:00,18.5,13.6,29.51,NW,315,18.6,19.2,81,0.00,,,0.03,WUHU216HW,2013-12-03 00:13:00,
2013-12-02 17:14:00,18.5,13.6,29.51,NW,315,17.9,19.2,81,0.00,,,0.03,WUHU216HW,2013-12-03 00:14:00,
2013-12-02 17:15:00,18.5,13.9,29.51,NW,315,19.0,19.5,82,0.00,,,0.03,WUHU216HW,2013-12-03 00:15:00,
2013-12-02 17:17:00,18.5,13.9,29.51,WNW,293,19.0,22.4,82,0.00,,,0.03,WUHU216HW,2013-12-03 00:17:00,
2013-12-02 17:18:00,18.5,13.9,29.51,WNW,293,15.4,22.4,82,0.00,,,0.03,WUHU216HW,2013-12-03 00:18:00,
2013-12-02 17:19:00,18.5,13.9,29.51,NW,315,17.9,22.4,82,0.00,,,0.03,WUHU216HW,2013-12-03 00:19:00,
2013-12-02 17:20:00,18.5,13.6,29.51,WNW,293,25.1,25.1,81,0.00,,,0.03,WUHU216HW,2013-12-03 00:20:00,
2013-12-02 17:22:00,18.5,13.3,29.51,NW,315,19.2,25.1,80,0.00,,,0.03,WUHU216HW,2013-12-03 00:22:00,
2013-12-02 17:23:00,18.4,13.1,29.51,NW,315,21.3,25.1,80,0.00,,,0.03,WUHU216HW,2013-12-03 00:23:00,
2013-12-02 17:24:00,18.5,13.3,29.51,NW,315,21.3,25.1,80,0.00,,,0.03,WUHU216HW,2013-12-03 00:24:00,
2013-12-02 17:26:00,18.4,13.1,29.51,NW,315,21.9,25.1,80,0.00,,,0.03,WUHU216HW,2013-12-03 00:26:00,
2013-12-02 17:27:00,18.4,13.1,29.51,NW,315,17.9,25.1,80,0.00,,,0.03,WUHU216HW,2013-12-03 00:27:00,
2013-12-02 17:29:00,18.4,13.1,29.51,NW,315,17.9,25.1,80,0.00,,,0.03,WUHU216HW,2013-12-03 00:29:00,
2013-12-02 17:31:00,18.4,13.4,29.51,WNW,293,18.1,23.0,81,0.00,,,0.03,WUHU216HW,2013-12-03 00:31:00,
2013-12-02 17:32:00,18.2,12.7,29.51,NW,315,24.8,24.8,79,0.00,,,0.03,WUHU216HW,2013-12-03 00:32:00,
2013-12-02 17:33:00,18.2,12.7,29.51,NW,315,24.8,24.8,79,0.00,,,0.03,WUHU216HW,2013-12-03 00:33:00,
2013-12-02 17:34:00,18.0,12.5,29.51,NW,315,26.4,27.7,79,0.00,,,0.03,WUHU216HW,2013-12-03 00:34:00,
2013-12-02 17:36:00,17.3,11.5,29.52,NW,315,24.8,27.7,78,0.00,,,0.03,WUHU216HW,2013-12-03 00:36:00,
2013-12-02 17:37:00,17.1,11.6,29.52,NW,315,24.6,27.7,79,0.00,,,0.03,WUHU216HW,2013-12-03 00:37:00,
2013-12-02 17:38:00,16.9,11.5,29.52,NW,315,21.9,27.7,79,0.00,,,0.03,WUHU216HW,2013-12-03 00:38:00,
2013-12-02 17:39:00,16.7,11.4,29.52,NNW,338,23.7,27.7,79,0.00,,,0.03,WUHU216HW,2013-12-03 00:39:00,
2013-12-02 17:41:00,16.2,10.8,29.52,NW,315,21.3,27.7,79,0.00,,,0.03,WUHU216HW,2013-12-03 00:41:00,
2013-12-02 17:42:00,16.2,10.8,29.52,WNW,293,25.5,27.7,79,0.00,,,0.03,WUHU216HW,2013-12-03 00:42:00,
2013-12-02 17:43:00,16.2,10.8,29.52,NW,315,23.9,27.5,79,0.00,,,0.03,WUHU216HW,2013-12-03 00:43:00,
2013-12-02 17:44:00,16.0,10.6,29.52,NW,315,24.8,26.4,79,0.00,,,0.03,WUHU216HW,2013-12-03 00:44:00,
2013-12-02 17:46:00,16.2,10.8,29.52,NW,315,22.8,25.9,79,0.00,,,0.03,WUHU216HW,2013-12-03 00:46:00,
2013-12-02 17:48:00,16.2,10.8,29.53,WNW,293,19.9,25.9,79,0.00,,,0.03,WUHU216HW,2013-12-03 00:48:00,
2013-12-02 17:49:00,16.4,11.0,29.52,NW,315,26.6,26.6,79,0.00,,,0.03,WUHU216HW,2013-12-03 00:49:00,
2013-12-02 17:51:00,16.7,11.0,29.53,NW,315,23.5,26.6,78,0.00,,,0.03,WUHU216HW,2013-12-03 00:51:00,
2013-12-02 17:53:00,16.9,10.6,29.53,NW,315,24.4,26.6,76,0.00,,,0.03,WUHU216HW,2013-12-03 00:53:00,
2013-12-02 17:54:00,16.9,10.3,29.53,NW,315,27.3,27.3,75,0.00,,,0.03,WUHU216HW,2013-12-03 00:54:00,
2013-12-02 17:55:00,16.9,10.3,29.53,WNW,293,23.5,27.3,75,0.00,,,0.03,WUHU216HW,2013-12-03 00:55:00,
2013-12-02 17:56:00,16.9,10.3,29.53,WNW,293,21.9,28.0,75,0.00,,,0.03,WUHU216HW,2013-12-03 00:56:00,
2013-12-02 17:58:00,16.9,10.0,29.53,WNW,293,23.3,28.0,74,0.00,,,0.03,WUHU216HW,2013-12-03 00:58:00,
2013-12-02 17:59:00,16.9,10.0,29.53,WNW,293,19.0,28.0,74,0.00,,,0.03,WUHU216HW,2013-12-03 00:59:00,
2013-12-02 18:00:00,16.9,10.0,29.53,WNW,293,23.7,28.0,74,0.00,,,0.03,WUHU216HW,2013-12-03 01:00:00,
2013-12-02 18:02:00,16.9,10.0,29.53,WNW,293,18.6,28.0,74,0.00,,,0.03,WUHU216HW,2013-12-03 01:02:00,
2013-12-02 18:03:00,16.7,9.8,29.53,NW,315,19.5,28.0,74,0.00,,,0.03,WUHU216HW,2013-12-03 01:03:00,
2013-12-02 18:04:00,16.7,9.8,29.53,WNW,293,22.6,28.0,74,0.00,,,0.03,WUHU216HW,2013-12-03 01:04:00,
2013-12-02 18:05:00,16.7,9.8,29.53,NW,315,21.0,28.0,74,0.00,,,0.03,WUHU216HW,2013-12-03 01:05:00,
2013-12-02 18:06:00,16.7,9.8,29.53,NW,315,21.9,28.0,74,0.00,,,0.03,WUHU216HW,2013-12-03 01:06:00,
2013-12-02 18:07:00,16.6,9.6,29.53,NW,315,22.8,25.7,74,0.00,,,0.03,WUHU216HW,2013-12-03 01:07:00,
2013-12-02 18:08:00,16.6,9.6,29.53,WNW,293,22.4,25.7,74,0.00,,,0.03,WUHU216HW,2013-12-03 01:08:00,
2013-12-02 18:09:00,16.6,9.6,29.53,NW,315,23.3,25.3,74,0.00,,,0.03,WUHU216HW,2013-12-03 01:09:00,
2013-12-02 18:10:00,16.6,9.6,29.53,WNW,293,27.3,27.5,74,0.00,,,0.03,WUHU216HW,2013-12-03 01:10:00,
2013-12-02 18:11:00,16.6,9.6,29.53,NW,315,23.7,27.5,74,0.00,,,0.03,WUHU216HW,2013-12-03 01:11:00,
2013-12-02 18:12:00,16.4,9.5,29.53,WNW,293,23.9,30.4,74,0.00,,,0.03,WUHU216HW,2013-12-03 01:12:00,
2013-12-02 18:14:00,16.2,9.3,29.53,West,270,27.3,30.4,74,0.00,,,0.03,WUHU216HW,2013-12-03 01:14:00,
2013-12-02 18:15:00,16.2,9.3,29.53,WNW,293,23.9,30.4,74,0.00,,,0.03,WUHU216HW,2013-12-03 01:15:00,
2013-12-02 18:16:00,16.2,9.3,29.53,WNW,293,26.2,30.4,74,0.00,,,0.03,WUHU216HW,2013-12-03 01:16:00,
2013-12-02 18:17:00,16.0,9.5,29.53,WNW,293,23.5,30.4,75,0.00,,,0.03,WUHU216HW,2013-12-03 01:17:00,
2013-12-02 18:20:00,15.8,9.3,29.54,WNW,293,26.6,30.4,75,0.00,,,0.03,WUHU216HW,2013-12-03 01:20:00,
2013-12-02 18:21:00,15.8,9.3,29.54,West,270,24.4,30.4,75,0.00,,,0.03,WUHU216HW,2013-12-03 01:21:00,
2013-12-02 18:23:00,15.8,9.3,29.55,WNW,293,27.3,28.2,75,0.00,,,0.03,WUHU216HW,2013-12-03 01:23:00,
2013-12-02 18:25:00,15.8,9.3,29.55,WNW,293,26.6,28.4,75,0.00,,,0.03,WUHU216HW,2013-12-03 01:25:00,
2013-12-02 18:26:00,15.8,9.0,29.55,West,270,20.6,28.4,74,0.00,,,0.03,WUHU216HW,2013-12-03 01:26:00,
2013-12-02 18:27:00,15.8,9.3,29.56,WNW,293,19.7,28.4,75,0.00,,,0.03,WUHU216HW,2013-12-03 01:27:00,
2013-12-02 18:28:00,15.7,9.1,29.55,WNW,293,26.2,28.4,75,0.00,,,0.03,WUHU216HW,2013-12-03 01:28:00,
2013-12-02 18:30:00,15.7,8.8,29.55,West,270,23.0,29.1,74,0.00,,,0.03,WUHU216HW,2013-12-03 01:30:00,
2013-12-02 18:31:00,15.7,8.8,29.55,West,270,25.5,29.1,74,0.00,,,0.03,WUHU216HW,2013-12-03 01:31:00,
2013-12-02 18:33:00,15.5,8.7,29.56,WNW,293,23.7,30.2,74,0.00,,,0.03,WUHU216HW,2013-12-03 01:33:00,
2013-12-02 18:35:00,15.5,8.7,29.56,West,270,27.3,30.2,74,0.00,,,0.03,WUHU216HW,2013-12-03 01:35:00,
2013-12-02 18:36:00,15.5,8.7,29.56,West,270,22.1,30.2,74,0.00,,,0.03,WUHU216HW,2013-12-03 01:36:00,
2013-12-02 18:37:00,15.5,8.7,29.56,WSW,248,20.1,30.2,74,0.00,,,0.03,WUHU216HW,2013-12-03 01:37:00,
2013-12-02 18:38:00,15.3,8.5,29.56,WNW,293,23.7,30.2,74,0.00,,,0.03,WUHU216HW,2013-12-03 01:38:00,
2013-12-02 18:39:00,15.3,8.5,29.56,WNW,293,23.7,30.2,74,0.00,,,0.03,WUHU216HW,2013-12-03 01:39:00,
2013-12-02 18:40:00,15.3,8.5,29.56,WNW,293,26.6,30.2,74,0.00,,,0.03,WUHU216HW,2013-12-03 01:40:00,
2013-12-02 18:41:00,15.3,8.5,29.56,West,270,21.7,30.2,74,0.00,,,0.03,WUHU216HW,2013-12-03 01:41:00,
2013-12-02 18:42:00,15.3,8.5,29.56,West,270,20.6,29.5,74,0.00,,,0.03,WUHU216HW,2013-12-03 01:42:00,
2013-12-02 18:44:00,15.3,8.5,29.56,West,270,23.7,30.2,74,0.00,,,0.03,WUHU216HW,2013-12-03 01:44:00,
2013-12-02 18:45:00,15.1,8.3,29.57,West,270,24.4,30.4,74,0.00,,,0.03,WUHU216HW,2013-12-03 01:45:00,
2013-12-02 18:46:00,15.1,8.3,29.57,West,270,25.3,30.4,74,0.00,,,0.03,WUHU216HW,2013-12-03 01:46:00,
2013-12-02 18:47:00,14.9,8.1,29.57,West,270,25.1,30.4,74,0.00,,,0.03,WUHU216HW,2013-12-03 01:47:00,
2013-12-02 18:49:00,14.9,8.1,29.58,WNW,293,22.4,30.4,74,0.00,,,0.03,WUHU216HW,2013-12-03 01:49:00,
2013-12-02 18:50:00,14.9,8.1,29.58,WNW,293,21.5,30.4,74,0.00,,,0.03,WUHU216HW,2013-12-03 01:50:00,
2013-12-02 18:51:00,14.8,7.9,29.58,West,270,25.9,30.4,74,0.00,,,0.03,WUHU216HW,2013-12-03 01:51:00,
2013-12-02 18:52:00,14.8,7.9,29.58,West,270,24.4,30.4,74,0.00,,,0.03,WUHU216HW,2013-12-03 01:52:00,
2013-12-02 18:54:00,14.8,7.9,29.58,WSW,248,20.8,30.4,74,0.00,,,0.03,WUHU216HW,2013-12-03 01:54:00,
2013-12-02 18:55:00,14.8,7.9,29.58,WNW,293,17.0,28.9,74,0.00,,,0.03,WUHU216HW,2013-12-03 01:55:00,
2013-12-02 18:56:00,14.6,7.7,29.58,WNW,293,17.0,28.9,74,0.00,,,0.03,WUHU216HW,2013-12-03 01:56:00,
2013-12-02 18:57:00,14.6,7.7,29.58,WSW,248,18.3,28.9,74,0.00,,,0.03,WUHU216HW,2013-12-03 01:57:00,
2013-12-02 18:59:00,14.4,7.7,29.59,WNW,293,16.6,26.8,74,0.00,,,0.03,WUHU216HW,2013-12-03 01:59:00,
2013-12-02 19:01:00,14.4,7.9,29.59,West,270,14.1,26.8,75,0.00,,,0.03,WUHU216HW,2013-12-03 02:01:00,
2013-12-02 19:02:00,14.4,7.7,29.59,NW,315,15.7,26.8,74,0.00,,,0.03,WUHU216HW,2013-12-03 02:02:00,
2013-12-02 19:06:00,14.0,7.3,29.59,WNW,293,14.5,27.3,74,0.00,,,0.03,WUHU216HW,2013-12-03 02:06:00,
2013-12-02 19:07:00,14.0,7.3,29.59,West,270,22.4,27.3,74,0.00,,,0.03,WUHU216HW,2013-12-03 02:07:00,
2013-12-02 19:08:00,14.0,7.3,29.59,West,270,19.2,27.3,74,0.00,,,0.03,WUHU216HW,2013-12-03 02:08:00,
2013-12-02 19:11:00,14.0,7.3,29.60,West,270,23.7,27.3,74,0.00,,,0.03,WUHU216HW,2013-12-03 02:11:00,
2013-12-02 19:12:00,14.0,7.3,29.60,West,270,23.7,27.3,74,0.00,,,0.03,WUHU216HW,2013-12-03 02:12:00,
2013-12-02 19:13:00,13.9,7.1,29.60,West,270,25.5,27.3,74,0.00,,,0.03,WUHU216HW,2013-12-03 02:13:00,
2013-12-02 19:16:00,13.9,7.1,29.60,West,270,20.8,26.6,74,0.00,,,0.03,WUHU216HW,2013-12-03 02:16:00,
2013-12-02 19:17:00,13.9,7.1,29.61,West,270,20.8,26.6,74,0.00,,,0.03,WUHU216HW,2013-12-03 02:17:00,
2013-12-02 19:18:00,14.0,7.3,29.61,WNW,293,13.2,26.6,74,0.00,,,0.03,WUHU216HW,2013-12-03 02:18:00,
2013-12-02 19:21:00,14.0,7.3,29.61,WNW,293,14.3,25.5,74,0.00,,,0.03,WUHU216HW,2013-12-03 02:21:00,
2013-12-02 19:22:00,14.0,7.3,29.61,West,270,17.0,25.5,74,0.00,,,0.03,WUHU216HW,2013-12-03 02:22:00,
2013-12-02 19:24:00,14.0,7.0,29.61,WNW,293,14.3,21.5,73,0.00,,,0.03,WUHU216HW,2013-12-03 02:24:00,
2013-12-02 19:26:00,14.0,7.0,29.62,WNW,293,15.0,20.8,73,0.00,,,0.03,WUHU216HW,2013-12-03 02:26:00,
2013-12-02 19:27:00,14.0,6.7,29.62,WNW,293,20.8,20.8,72,0.00,,,0.03,WUHU216HW,2013-12-03 02:27:00,
2013-12-02 19:28:00,14.0,6.7,29.62,West,270,18.6,20.8,72,0.00,,,0.03,WUHU216HW,2013-12-03 02:28:00,
2013-12-02 19:29:00,13.9,6.5,29.61,WNW,293,18.1,20.8,72,0.00,,,0.03,WUHU216HW,2013-12-03 02:29:00,
2013-12-02 19:32:00,13.7,6.7,29.61,NW,315,20.8,20.8,73,0.00,,,0.03,WUHU216HW,2013-12-03 02:32:00,
2013-12-02 19:33:00,13.7,6.3,29.61,NW,315,22.8,22.8,72,0.00,,,0.03,WUHU216HW,2013-12-03 02:33:00,
2013-12-02 19:34:00,13.3,5.9,29.61,WNW,293,16.1,22.8,72,0.00,,,0.03,WUHU216HW,2013-12-03 02:34:00,
2013-12-02 19:36:00,13.0,6.0,29.61,WNW,293,19.9,22.8,73,0.00,,,0.03,WUHU216HW,2013-12-03 02:36:00,
2013-12-02 19:37:00,13.0,6.0,29.61,NW,315,16.3,22.8,73,0.00,,,0.03,WUHU216HW,2013-12-03 02:37:00,
2013-12-02 19:38:00,13.0,6.0,29.61,WNW,293,15.0,22.8,73,0.00,,,0.03,WUHU216HW,2013-12-03 02:38:00,
2013-12-02 19:39:00,12.8,6.0,29.61,NW,315,19.0,22.8,74,0.00,,,0.03,WUHU216HW,2013-12-03 02:39:00,
2013-12-02 19:41:00,12.8,5.8,29.60,WNW,293,20.1,23.7,73,0.00,,,0.03,WUHU216HW,2013-12-03 02:41:00,
2013-12-02 19:43:00,12.8,5.8,29.60,WNW,293,22.6,23.7,73,0.00,,,0.03,WUHU216HW,2013-12-03 02:43:00,
2013-12-02 19:44:00,12.8,5.8,29.60,WNW,293,25.3,25.3,73,0.00,,,0.03,WUHU216HW,2013-12-03 02:44:00,
2013-12-02 19:45:00,12.8,5.4,29.61,WNW,293,24.6,25.3,72,0.00,,,0.03,WUHU216HW,2013-12-03 02:45:00,
2013-12-02 19:47:00,12.8,5.4,29.60,WNW,293,19.9,25.5,72,0.00,,,0.03,WUHU216HW,2013-12-03 02:47:00,
2013-12-02 19:48:00,12.6,5.9,29.60,WNW,293,21.3,25.5,74,0.00,,,0.03,WUHU216HW,2013-12-03 02:48:00,
2013-12-02 19:49:00,12.8,6.0,29.60,NW,315,17.9,25.5,74,0.00,,,0.03,WUHU216HW,2013-12-03 02:49:00,
2013-12-02 19:50:00,12.6,5.6,29.60,WNW,293,18.6,25.5,73,0.00,,,0.03,WUHU216HW,2013-12-03 02:50:00,
2013-12-02 19:52:00,12.6,5.9,29.60,NW,315,21.7,25.5,74,0.00,,,0.03,WUHU216HW,2013-12-03 02:52:00,
2013-12-02 19:53:00,12.6,5.9,29.60,WNW,293,24.6,25.5,74,0.00,,,0.03,WUHU216HW,2013-12-03 02:53:00,
2013-12-02 19:54:00,12.6,5.9,29.60,WNW,293,19.9,25.5,74,0.00,,,0.03,WUHU216HW,2013-12-03 02:54:00,
2013-12-02 19:56:00,12.4,5.0,29.60,WNW,293,27.3,27.3,72,0.00,,,0.03,WUHU216HW,2013-12-03 02:56:00,
2013-12-02 19:57:00,12.2,5.2,29.60,NW,315,24.2,28.0,73,0.00,,,0.03,WUHU216HW,2013-12-03 02:57:00,
2013-12-02 19:58:00,12.2,5.2,29.60,NW,315,23.3,28.6,73,0.00,,,0.03,WUHU216HW,2013-12-03 02:58:00,
2013-12-02 19:59:00,12.2,5.2,29.60,NW,315,28.9,28.9,73,0.00,,,0.03,WUHU216HW,2013-12-03 02:59:00,
2013-12-02 20:01:00,12.2,5.2,29.60,WNW,293,26.8,28.9,73,0.00,,,0.03,WUHU216HW,2013-12-03 03:01:00,
2013-12-02 20:03:00,11.9,4.9,29.60,NW,315,24.6,28.9,73,0.00,,,0.03,WUHU216HW,2013-12-03 03:03:00,
2013-12-02 20:04:00,11.9,4.9,29.60,WNW,293,23.0,28.9,73,0.00,,,0.03,WUHU216HW,2013-12-03 03:04:00,
2013-12-02 20:06:00,11.9,4.9,29.60,WNW,293,21.5,28.9,73,0.00,,,0.03,WUHU216HW,2013-12-03 03:06:00,
2013-12-02 20:08:00,11.9,4.5,29.60,WNW,293,26.6,28.9,72,0.00,,,0.03,WUHU216HW,2013-12-03 03:08:00,
2013-12-02 20:09:00,11.9,4.5,29.60,West,270,19.2,28.9,72,0.00,,,0.03,WUHU216HW,2013-12-03 03:09:00,
2013-12-02 20:10:00,11.9,4.5,29.60,WNW,293,22.1,28.9,72,0.00,,,0.03,WUHU216HW,2013-12-03 03:10:00,
2013-12-02 20:11:00,11.9,4.9,29.60,NNW,338,21.5,26.8,73,0.00,,,0.03,WUHU216HW,2013-12-03 03:11:00,
2013-12-02 20:13:00,11.9,4.9,29.60,WNW,293,17.9,26.8,73,0.00,,,0.03,WUHU216HW,2013-12-03 03:13:00,
2013-12-02 20:14:00,11.9,4.9,29.60,WNW,293,20.1,26.6,73,0.00,,,0.03,WUHU216HW,2013-12-03 03:14:00,
2013-12-02 20:15:00,11.9,4.9,29.60,WNW,293,26.4,29.8,73,0.00,,,0.03,WUHU216HW,2013-12-03 03:15:00,
2013-12-02 20:16:00,11.9,4.5,29.60,WNW,293,21.5,29.8,72,0.00,,,0.03,WUHU216HW,2013-12-03 03:16:00,
2013-12-02 20:19:00,11.9,4.5,29.60,WNW,293,26.2,29.8,72,0.00,,,0.03,WUHU216HW,2013-12-03 03:19:00,
2013-12-02 20:20:00,11.9,4.5,29.60,WNW,293,25.9,31.1,72,0.00,,,0.03,WUHU216HW,2013-12-03 03:20:00,
2013-12-02 20:21:00,11.9,4.5,29.60,WNW,293,20.8,31.1,72,0.00,,,0.03,WUHU216HW,2013-12-03 03:21:00,
2013-12-02 20:22:00,11.9,4.5,29.60,WNW,293,20.8,31.1,72,0.00,,,0.03,WUHU216HW,2013-12-03 03:22:00,
2013-12-02 20:24:00,11.7,4.3,29.60,WNW,293,26.6,31.1,72,0.00,,,0.03,WUHU216HW,2013-12-03 03:24:00,
2013-12-02 20:25:00,11.7,4.3,29.60,West,270,29.3,32.2,72,0.00,,,0.03,WUHU216HW,2013-12-03 03:25:00,
2013-12-02 20:26:00,11.5,4.5,29.60,West,270,26.6,32.2,73,0.00,,,0.03,WUHU216HW,2013-12-03 03:26:00,
2013-12-02 20:27:00,11.5,4.5,29.60,WNW,293,28.2,32.2,73,0.00,,,0.03,WUHU216HW,2013-12-03 03:27:00,
2013-12-02 20:29:00,11.5,4.5,29.61,West,270,22.1,32.2,73,0.00,,,0.03,WUHU216HW,2013-12-03 03:29:00,
2013-12-02 20:30:00,11.3,4.0,29.61,NW,315,22.6,32.2,72,0.00,,,0.03,WUHU216HW,2013-12-03 03:30:00,
2013-12-02 20:31:00,11.3,4.3,29.61,NW,315,19.2,32.2,73,0.00,,,0.03,WUHU216HW,2013-12-03 03:31:00,
2013-12-02 20:32:00,11.3,4.3,29.61,NW,315,19.5,32.2,73,0.00,,,0.03,WUHU216HW,2013-12-03 03:32:00,
2013-12-02 20:33:00,11.3,4.3,29.61,NW,315,22.6,32.2,73,0.00,,,0.03,WUHU216HW,2013-12-03 03:33:00,
2013-12-02 20:34:00,11.2,4.2,29.61,WNW,293,25.9,32.2,73,0.00,,,0.03,WUHU216HW,2013-12-03 03:34:00,
2013-12-02 20:35:00,11.2,4.2,29.62,WNW,293,23.9,31.1,73,0.00,,,0.03,WUHU216HW,2013-12-03 03:35:00,
2013-12-02 20:36:00,11.2,4.2,29.62,NW,315,24.2,30.4,73,0.00,,,0.03,WUHU216HW,2013-12-03 03:36:00,
2013-12-02 20:37:00,11.2,4.2,29.62,WNW,293,23.5,27.3,73,0.00,,,0.03,WUHU216HW,2013-12-03 03:37:00,
2013-12-02 20:38:00,11.2,4.2,29.62,WNW,293,21.0,26.8,73,0.00,,,0.03,WUHU216HW,2013-12-03 03:38:00,
2013-12-02 20:39:00,11.2,4.2,29.62,West,270,20.8,26.8,73,0.00,,,0.03,WUHU216HW,2013-12-03 03:39:00,
2013-12-02 20:40:00,11.2,4.2,29.62,NW,315,17.0,26.8,73,0.00,,,0.03,WUHU216HW,2013-12-03 03:40:00,
2013-12-02 20:42:00,11.3,4.3,29.62,West,270,20.8,26.8,73,0.00,,,0.03,WUHU216HW,2013-12-03 03:42:00,
2013-12-02 20:43:00,11.3,4.0,29.62,West,270,24.8,26.8,72,0.00,,,0.03,WUHU216HW,2013-12-03 03:43:00,
2013-12-02 20:44:00,11.3,3.7,29.62,NW,315,20.4,26.6,71,0.00,,,0.03,WUHU216HW,2013-12-03 03:44:00,
2013-12-02 20:45:00,11.3,4.0,29.62,WNW,293,22.1,26.6,72,0.00,,,0.03,WUHU216HW,2013-12-03 03:45:00,
2013-12-02 20:47:00,11.3,3.7,29.62,WNW,293,22.4,26.4,71,0.00,,,0.03,WUHU216HW,2013-12-03 03:47:00,
2013-12-02 20:49:00,11.2,3.5,29.62,WNW,293,18.8,26.4,71,0.00,,,0.03,WUHU216HW,2013-12-03 03:49:00,
2013-12-02 20:51:00,11.2,4.2,29.63,NW,315,20.8,25.3,73,0.00,,,0.03,WUHU216HW,2013-12-03 03:51:00,
2013-12-02 20:52:00,11.0,4.0,29.63,NW,315,25.3,25.3,73,0.00,,,0.03,WUHU216HW,2013-12-03 03:52:00,
2013-12-02 20:54:00,10.8,4.1,29.63,NW,315,19.0,25.9,74,0.00,,,0.03,WUHU216HW,2013-12-03 03:54:00,
2013-12-02 20:56:00,10.8,3.8,29.63,WNW,293,19.7,25.9,73,0.00,,,0.03,WUHU216HW,2013-12-03 03:56:00,
2013-12-02 20:57:00,10.6,3.6,29.63,West,270,25.3,25.9,73,0.00,,,0.03,WUHU216HW,2013-12-03 03:57:00,
2013-12-02 20:58:00,10.8,3.8,29.63,WNW,293,20.8,25.9,73,0.00,,,0.03,WUHU216HW,2013-12-03 03:58:00,
2013-12-02 20:59:00,10.8,4.1,29.63,NW,315,28.9,28.9,74,0.00,,,0.03,WUHU216HW,2013-12-03 03:59:00,
2013-12-02 21:01:00,10.6,3.2,29.63,WNW,293,31.1,31.1,72,0.00,,,0.03,WUHU216HW,2013-12-03 04:01:00,
2013-12-02 21:03:00,10.6,3.2,29.62,WNW,293,25.9,31.1,72,0.00,,,0.03,WUHU216HW,2013-12-03 04:03:00,
2013-12-02 21:04:00,10.6,3.2,29.62,WNW,293,23.5,31.1,72,0.00,,,0.03,WUHU216HW,2013-12-03 04:04:00,
2013-12-02 21:05:00,10.8,3.8,29.62,WNW,293,27.5,31.1,73,0.00,,,0.03,WUHU216HW,2013-12-03 04:05:00,
2013-12-02 21:06:00,10.6,3.2,29.62,WNW,293,29.5,32.9,72,0.00,,,0.03,WUHU216HW,2013-12-03 04:06:00,
2013-12-02 21:07:00,10.6,3.2,29.62,WNW,293,24.8,32.9,72,0.00,,,0.03,WUHU216HW,2013-12-03 04:07:00,
2013-12-02 21:08:00,10.4,3.1,29.61,NW,315,27.3,32.9,72,0.00,,,0.03,WUHU216HW,2013-12-03 04:08:00,
2013-12-02 21:09:00,10.4,3.4,29.61,WNW,293,26.4,32.9,73,0.00,,,0.03,WUHU216HW,2013-12-03 04:09:00,
2013-12-02 21:10:00,10.4,3.4,29.61,NNW,338,26.2,32.9,73,0.00,,,0.03,WUHU216HW,2013-12-03 04:10:00,
2013-12-02 21:11:00,10.3,3.3,29.61,WNW,293,29.5,32.9,73,0.00,,,0.03,WUHU216HW,2013-12-03 04:11:00,
2013-12-02 21:12:00,10.1,3.1,29.61,NW,315,38.0,38.0,73,0.00,,,0.03,WUHU216HW,2013-12-03 04:12:00,
2013-12-02 21:13:00,9.9,2.9,29.61,NW,315,33.1,38.0,73,0.00,,,0.03,WUHU216HW,2013-12-03 04:13:00,
2013-12-02 21:14:00,9.9,2.9,29.61,NW,315,33.1,38.0,73,0.00,,,0.03,WUHU216HW,2013-12-03 04:14:00,
2013-12-02 21:15:00,9.7,3.1,29.61,WNW,293,28.6,38.0,74,0.00,,,0.03,WUHU216HW,2013-12-03 04:15:00,
2013-12-02 21:16:00,9.7,2.7,29.61,WNW,293,32.7,38.0,73,0.00,,,0.03,WUHU216HW,2013-12-03 04:16:00,
2013-12-02 21:17:00,9.5,2.6,29.61,WNW,293,31.8,38.0,73,0.00,,,0.03,WUHU216HW,2013-12-03 04:17:00,
2013-12-02 21:19:00,9.5,2.6,29.62,WNW,293,30.6,38.0,73,0.00,,,0.03,WUHU216HW,2013-12-03 04:19:00,
2013-12-02 21:20:00,9.5,2.6,29.62,WNW,293,31.5,38.0,73,0.00,,,0.03,WUHU216HW,2013-12-03 04:20:00,
2013-12-02 21:21:00,9.4,2.4,29.62,NW,315,25.9,38.0,73,0.00,,,0.03,WUHU216HW,2013-12-03 04:21:00,
2013-12-02 21:22:00,9.4,2.4,29.62,WNW,293,28.9,38.0,73,0.00,,,0.03,WUHU216HW,2013-12-03 04:22:00,
2013-12-02 21:24:00,9.5,2.6,29.63,WNW,293,29.3,34.9,73,0.00,,,0.03,WUHU216HW,2013-12-03 04:24:00,
2013-12-02 21:25:00,9.7,2.7,29.63,NW,315,26.8,34.7,73,0.00,,,0.03,WUHU216HW,2013-12-03 04:25:00,
2013-12-02 21:26:00,9.7,2.7,29.63,NW,315,26.8,34.7,73,0.00,,,0.03,WUHU216HW,2013-12-03 04:26:00,
2013-12-02 21:27:00,9.7,2.7,29.63,WNW,293,23.0,34.7,73,0.00,,,0.03,WUHU216HW,2013-12-03 04:27:00,
2013-12-02 21:28:00,9.7,2.7,29.63,WNW,293,25.7,34.7,73,0.00,,,0.03,WUHU216HW,2013-12-03 04:28:00,
2013-12-02 21:29:00,9.7,2.7,29.63,WNW,293,25.3,34.7,73,0.00,,,0.03,WUHU216HW,2013-12-03 04:29:00,
2013-12-02 21:31:00,9.7,2.7,29.63,NW,315,27.5,34.7,73,0.00,,,0.03,WUHU216HW,2013-12-03 04:31:00,
2013-12-02 21:32:00,9.7,2.7,29.63,NW,315,22.4,34.7,73,0.00,,,0.03,WUHU216HW,2013-12-03 04:32:00,
2013-12-02 21:33:00,9.7,2.7,29.63,NW,315,32.0,34.7,73,0.00,,,0.03,WUHU216HW,2013-12-03 04:33:00,
2013-12-02 21:34:00,9.7,2.4,29.63,WNW,293,31.1,32.0,72,0.00,,,0.03,WUHU216HW,2013-12-03 04:34:00,
2013-12-02 21:35:00,9.7,2.4,29.63,WNW,293,26.8,32.0,72,0.00,,,0.03,WUHU216HW,2013-12-03 04:35:00,
2013-12-02 21:36:00,9.7,2.4,29.63,WNW,293,23.7,32.0,72,0.00,,,0.03,WUHU216HW,2013-12-03 04:36:00,
2013-12-02 21:37:00,9.7,2.4,29.63,WNW,293,30.0,32.0,72,0.00,,,0.03,WUHU216HW,2013-12-03 04:37:00,
2013-12-02 21:39:00,9.5,2.3,29.63,WNW,293,28.2,32.0,72,0.00,,,0.03,WUHU216HW,2013-12-03 04:39:00,
2013-12-02 21:40:00,9.5,2.3,29.63,NW,315,21.5,32.0,72,0.00,,,0.03,WUHU216HW,2013-12-03 04:40:00,
2013-12-02 21:41:00,9.5,2.3,29.63,West,270,25.9,32.0,72,0.00,,,0.03,WUHU216HW,2013-12-03 04:41:00,
2013-12-02 21:42:00,9.5,2.3,29.63,WNW,293,27.1,32.0,72,0.00,,,0.03,WUHU216HW,2013-12-03 04:42:00,
2013-12-02 21:44:00,9.4,2.2,29.63,West,270,25.7,31.1,72,0.00,,,0.03,WUHU216HW,2013-12-03 04:44:00,
2013-12-02 21:45:00,9.4,2.2,29.63,WNW,293,26.6,32.0,72,0.00,,,0.03,WUHU216HW,2013-12-03 04:45:00,
2013-12-02 21:46:00,9.4,1.8,29.64,NW,315,25.3,32.0,71,0.00,,,0.03,WUHU216HW,2013-12-03 04:46:00,
2013-12-02 21:47:00,9.4,1.8,29.63,NW,315,21.0,32.0,71,0.00,,,0.03,WUHU216HW,2013-12-03 04:47:00,
2013-12-02 21:50:00,9.4,2.2,29.64,WNW,293,20.8,32.0,72,0.00,,,0.03,WUHU216HW,2013-12-03 04:50:00,
2013-12-02 21:51:00,9.4,1.8,29.64,WNW,293,23.7,32.0,71,0.00,,,0.03,WUHU216HW,2013-12-03 04:51:00,
2013-12-02 21:52:00,9.4,1.8,29.64,NW,315,25.7,32.0,71,0.00,,,0.03,WUHU216HW,2013-12-03 04:52:00,
2013-12-02 21:53:00,9.2,1.7,29.64,WNW,293,25.5,32.0,71,0.00,,,0.03,WUHU216HW,2013-12-03 04:53:00,
2013-12-02 21:55:00,9.4,1.8,29.64,NW,315,23.5,28.2,71,0.00,,,0.03,WUHU216HW,2013-12-03 04:55:00,
2013-12-02 21:56:00,9.4,1.8,29.64,WNW,293,24.2,27.3,71,0.00,,,0.03,WUHU216HW,2013-12-03 04:56:00,
2013-12-02 21:58:00,9.4,1.8,29.64,WNW,293,25.9,27.3,71,0.00,,,0.03,WUHU216HW,2013-12-03 04:58:00,
2013-12-02 22:00:00,9.2,1.4,29.64,NW,315,25.3,27.5,70,0.00,,,0.03,WUHU216HW,2013-12-03 05:00:00,
2013-12-02 22:01:00,9.2,1.4,29.64,NW,315,21.5,27.5,70,0.00,,,0.03,WUHU216HW,2013-12-03 05:01:00,
2013-12-02 22:06:00,9.0,1.5,29.65,WNW,293,28.0,28.0,71,0.00,,,0.03,WUHU216HW,2013-12-03 05:06:00,
2013-12-02 22:11:00,8.8,1.4,29.65,NW,315,27.5,28.9,71,0.00,,,0.03,WUHU216HW,2013-12-03 05:11:00,
2013-12-02 22:12:00,8.8,1.4,29.65,WNW,293,27.7,28.9,71,0.00,,,0.03,WUHU216HW,2013-12-03 05:12:00,
2013-12-02 22:16:00,8.6,1.2,29.65,NW,315,25.5,30.2,71,0.00,,,0.03,WUHU216HW,2013-12-03 05:16:00,
2013-12-02 22:17:00,8.6,1.2,29.66,NW,315,23.0,30.2,71,0.00,,,0.03,WUHU216HW,2013-12-03 05:17:00,
2013-12-02 22:21:00,8.5,1.0,29.66,NNW,338,28.6,30.2,71,0.00,,,0.03,WUHU216HW,2013-12-03 05:21:00,
2013-12-02 22:22:00,8.5,1.0,29.66,WNW,293,25.9,30.2,71,0.00,,,0.03,WUHU216HW,2013-12-03 05:22:00,
2013-12-02 22:26:00,8.3,0.8,29.66,NW,315,23.9,32.0,71,0.00,,,0.03,WUHU216HW,2013-12-03 05:26:00,
2013-12-02 22:27:00,8.3,0.8,29.66,NW,315,23.9,32.0,71,0.00,,,0.03,WUHU216HW,2013-12-03 05:27:00,
2013-12-02 22:28:00,8.3,1.1,29.66,WNW,293,26.4,32.0,72,0.00,,,0.03,WUHU216HW,2013-12-03 05:28:00,
2013-12-02 22:31:00,8.1,0.9,29.66,West,270,26.6,32.0,72,0.00,,,0.03,WUHU216HW,2013-12-03 05:31:00,
2013-12-02 22:32:00,8.1,0.9,29.66,WNW,293,26.4,32.0,72,0.00,,,0.03,WUHU216HW,2013-12-03 05:32:00,
2013-12-02 22:33:00,8.1,0.9,29.66,WNW,293,28.6,32.0,72,0.00,,,0.03,WUHU216HW,2013-12-03 05:33:00,
2013-12-02 22:36:00,7.9,0.7,29.66,NW,315,24.2,29.8,72,0.00,,,0.03,WUHU216HW,2013-12-03 05:36:00,
2013-12-02 22:37:00,7.9,0.7,29.66,WNW,293,25.9,29.8,72,0.00,,,0.03,WUHU216HW,2013-12-03 05:37:00,
2013-12-02 22:38:00,7.9,0.7,29.66,WNW,293,23.7,29.8,72,0.00,,,0.03,WUHU216HW,2013-12-03 05:38:00,
2013-12-02 22:41:00,7.7,0.5,29.66,WNW,293,21.5,28.6,72,0.00,,,0.03,WUHU216HW,2013-12-03 05:41:00,
2013-12-02 22:42:00,7.7,0.5,29.66,WNW,293,24.8,28.6,72,0.00,,,0.03,WUHU216HW,2013-12-03 05:42:00,
2013-12-02 22:43:00,7.7,0.5,29.66,West,270,19.2,28.6,72,0.00,,,0.03,WUHU216HW,2013-12-03 05:43:00,
2013-12-02 22:44:00,7.7,0.5,29.66,WNW,293,23.0,27.1,72,0.00,,,0.03,WUHU216HW,2013-12-03 05:44:00,
2013-12-02 22:46:00,7.7,0.5,29.66,WNW,293,15.9,27.1,72,0.00,,,0.03,WUHU216HW,2013-12-03 05:46:00,
2013-12-02 22:47:00,7.7,0.5,29.66,WNW,293,15.9,27.1,72,0.00,,,0.03,WUHU216HW,2013-12-03 05:47:00,
2013-12-02 22:48:00,7.7,0.5,29.66,NW,315,25.5,27.1,72,0.00,,,0.03,WUHU216HW,2013-12-03 05:48:00,
2013-12-02 22:49:00,7.7,0.5,29.66,NW,315,19.7,27.1,72,0.00,,,0.03,WUHU216HW,2013-12-03 05:49:00,
2013-12-02 22:51:00,7.7,0.9,29.66,WNW,293,19.0,26.8,73,0.00,,,0.03,WUHU216HW,2013-12-03 05:51:00,
2013-12-02 22:52:00,7.7,0.9,29.66,NW,315,19.2,26.8,73,0.00,,,0.03,WUHU216HW,2013-12-03 05:52:00,
2013-12-02 22:53:00,7.7,0.9,29.66,WNW,293,21.0,26.8,73,0.00,,,0.03,WUHU216HW,2013-12-03 05:53:00,
2013-12-02 22:54:00,7.7,0.9,29.66,WNW,293,17.9,26.8,73,0.00,,,0.03,WUHU216HW,2013-12-03 05:54:00,
2013-12-02 22:57:00,7.7,0.9,29.65,NW,315,22.1,26.4,73,0.00,,,0.03,WUHU216HW,2013-12-03 05:57:00,
2013-12-02 22:58:00,7.7,0.9,29.66,WNW,293,29.3,29.3,73,0.00,,,0.03,WUHU216HW,2013-12-03 05:58:00,
2013-12-02 22:59:00,7.9,0.7,29.66,WNW,293,25.9,32.2,72,0.00,,,0.03,WUHU216HW,2013-12-03 05:59:00,
2013-12-02 23:02:00,7.7,0.5,29.66,WNW,293,23.5,32.2,72,0.00,,,0.03,WUHU216HW,2013-12-03 06:02:00,
2013-12-02 23:03:00,7.7,0.3,29.66,WNW,293,27.5,32.2,71,0.00,,,0.03,WUHU216HW,2013-12-03 06:03:00,
2013-12-02 23:04:00,7.9,0.7,29.65,NW,315,27.1,32.2,72,0.00,,,0.03,WUHU216HW,2013-12-03 06:04:00,
2013-12-02 23:05:00,7.9,0.7,29.66,NW,315,25.9,32.2,72,0.00,,,0.03,WUHU216HW,2013-12-03 06:05:00,
2013-12-02 23:07:00,7.9,0.7,29.66,NW,315,22.1,32.2,72,0.00,,,0.03,WUHU216HW,2013-12-03 06:07:00,
2013-12-02 23:08:00,7.9,0.7,29.66,NW,315,25.1,32.2,72,0.00,,,0.03,WUHU216HW,2013-12-03 06:08:00,
2013-12-02 23:10:00,7.9,0.7,29.66,WNW,293,21.9,27.5,72,0.00,,,0.03,WUHU216HW,2013-12-03 06:10:00,
2013-12-02 23:11:00,7.9,0.7,29.66,NW,315,20.1,27.5,72,0.00,,,0.03,WUHU216HW,2013-12-03 06:11:00,
2013-12-02 23:12:00,7.9,0.7,29.66,WNW,293,25.7,27.5,72,0.00,,,0.03,WUHU216HW,2013-12-03 06:12:00,
2013-12-02 23:13:00,7.9,0.7,29.66,WNW,293,25.9,27.5,72,0.00,,,0.03,WUHU216HW,2013-12-03 06:13:00,
2013-12-02 23:14:00,7.9,0.7,29.66,West,270,25.7,27.1,72,0.00,,,0.03,WUHU216HW,2013-12-03 06:14:00,
2013-12-02 23:15:00,7.9,0.5,29.66,West,270,27.1,29.1,71,0.00,,,0.03,WUHU216HW,2013-12-03 06:15:00,
2013-12-02 23:16:00,7.9,0.5,29.66,West,270,27.1,29.1,71,0.00,,,0.03,WUHU216HW,2013-12-03 06:16:00,
2013-12-02 23:17:00,8.1,0.6,29.66,WNW,293,26.2,29.1,71,0.00,,,0.03,WUHU216HW,2013-12-03 06:17:00,
2013-12-02 23:18:00,8.1,0.6,29.66,NW,315,23.0,29.1,71,0.00,,,0.03,WUHU216HW,2013-12-03 06:18:00,
2013-12-02 23:19:00,7.9,0.5,29.66,WNW,293,32.2,32.2,71,0.00,,,0.03,WUHU216HW,2013-12-03 06:19:00,
2013-12-02 23:21:00,7.9,0.5,29.66,NW,315,29.5,32.2,71,0.00,,,0.03,WUHU216HW,2013-12-03 06:21:00,
2013-12-02 23:22:00,7.7,0.5,29.66,NW,315,26.6,32.2,72,0.00,,,0.03,WUHU216HW,2013-12-03 06:22:00,
2013-12-02 23:23:00,7.7,0.5,29.66,NW,315,28.0,32.2,72,0.00,,,0.03,WUHU216HW,2013-12-03 06:23:00,
2013-12-02 23:24:00,7.7,0.5,29.66,NW,315,23.0,32.2,72,0.00,,,0.03,WUHU216HW,2013-12-03 06:24:00,
2013-12-02 23:26:00,7.6,0.4,29.66,WNW,293,28.2,32.2,72,0.00,,,0.03,WUHU216HW,2013-12-03 06:26:00,
2013-12-02 23:27:00,7.6,0.4,29.66,NW,315,25.7,32.2,72,0.00,,,0.03,WUHU216HW,2013-12-03 06:27:00,
2013-12-02 23:28:00,7.6,0.4,29.66,NW,315,26.8,32.2,72,0.00,,,0.03,WUHU216HW,2013-12-03 06:28:00,
2013-12-02 23:29:00,7.6,0.4,29.66,WNW,293,24.8,32.2,72,0.00,,,0.03,WUHU216HW,2013-12-03 06:29:00,
2013-12-02 23:32:00,7.4,0.6,29.66,NW,315,24.4,31.5,73,0.00,,,0.03,WUHU216HW,2013-12-03 06:32:00,
2013-12-02 23:33:00,7.4,0.6,29.66,WNW,293,24.4,31.5,73,0.00,,,0.03,WUHU216HW,2013-12-03 06:33:00,
2013-12-02 23:34:00,7.4,0.6,29.66,WNW,293,28.9,31.5,73,0.00,,,0.03,WUHU216HW,2013-12-03 06:34:00,
2013-12-02 23:35:00,7.4,0.6,29.66,WNW,293,28.9,31.5,73,0.00,,,0.03,WUHU216HW,2013-12-03 06:35:00,
2013-12-02 23:37:00,7.2,0.0,29.66,NNW,338,25.3,29.5,72,0.00,,,0.03,WUHU216HW,2013-12-03 06:37:00,
2013-12-02 23:38:00,7.4,0.2,29.66,NW,315,27.7,30.2,72,0.00,,,0.03,WUHU216HW,2013-12-03 06:38:00,
2013-12-02 23:40:00,7.4,0.2,29.66,NW,315,25.3,30.2,72,0.00,,,0.03,WUHU216HW,2013-12-03 06:40:00,
2013-12-02 23:42:00,7.4,0.2,29.67,WNW,293,30.4,30.4,72,0.00,,,0.03,WUHU216HW,2013-12-03 06:42:00,
2013-12-02 23:43:00,7.4,0.2,29.66,NNW,338,26.4,30.4,72,0.00,,,0.03,WUHU216HW,2013-12-03 06:43:00,
2013-12-02 23:45:00,7.4,0.2,29.66,NW,315,25.9,30.4,72,0.00,,,0.03,WUHU216HW,2013-12-03 06:45:00,
2013-12-02 23:47:00,7.4,0.2,29.67,WNW,293,25.5,30.4,72,0.00,,,0.03,WUHU216HW,2013-12-03 06:47:00,
2013-12-02 23:48:00,7.4,0.2,29.67,NW,315,25.1,30.4,72,0.00,,,0.03,WUHU216HW,2013-12-03 06:48:00,
2013-12-02 23:50:00,7.4,0.2,29.67,NW,315,23.3,30.4,72,0.00,,,0.03,WUHU216HW,2013-12-03 06:50:00,
2013-12-02 23:51:00,7.4,0.2,29.67,NW,315,21.9,30.4,72,0.00,,,0.03,WUHU216HW,2013-12-03 06:51:00,
2013-12-02 23:52:00,7.4,0.2,29.67,NW,315,23.5,30.0,72,0.00,,,0.03,WUHU216HW,2013-12-03 06:52:00,
2013-12-02 23:53:00,7.4,0.2,29.68,NW,315,26.6,30.0,72,0.00,,,0.03,WUHU216HW,2013-12-03 06:53:00,
2013-12-02 23:55:00,7.4,0.2,29.68,WNW,293,26.4,30.0,72,0.00,,,0.03,WUHU216HW,2013-12-03 06:55:00,
2013-12-02 23:57:00,7.2,0.0,29.67,WNW,293,25.5,28.9,72,0.00,,,0.03,WUHU216HW,2013-12-03 06:57:00,
2013-12-02 23:58:00,7.2,0.0,29.68,WNW,293,21.5,28.9,72,0.00,,,0.03,WUHU216HW,2013-12-03 06:58:00,